Time,TemperatureF,DewpointF,PressureIn,WindDirection,WindDirectionDegrees,WindSpeedMPH,WindSpeedGustMPH,Humidity,HourlyPrecipIn,Conditions,Clouds,dailyrainin,SoftwareType,DateUTC
2013-11-26 00:00:00,35.4,34.6,30.26,SE,137,0.0,1.0,97,0.00,,,0.00,WUHU216DAVISVP2,2013-11-26 08:00:00,
2013-11-26 00:02:00,35.4,34.6,30.26,SE,139,0.0,1.0,97,0.00,,,0.00,WUHU216DAVISVP2,2013-11-26 08:02:00,
2013-11-26 00:03:00,35.3,34.5,30.26,SE,139,0.0,1.0,97,0.00,,,0.00,WUHU216DAVISVP2,2013-11-26 08:03:00,
2013-11-26 00:04:00,35.3,34.5,30.26,South,179,0.0,1.0,97,0.00,,,0.00,WUHU216DAVISVP2,2013-11-26 08:04:00,
2013-11-26 00:05:00,35.3,34.5,30.26,South,179,0.0,1.0,97,0.00,,,0.00,WUHU216DAVISVP2,2013-11-26 08:05:00,
2013-11-26 00:07:00,35.2,34.4,30.26,WSW,240,0.0,1.0,97,0.00,,,0.00,WUHU216DAVISVP2,2013-11-26 08:07:00,
2013-11-26 00:08:00,35.2,34.4,30.26,WSW,240,0.0,1.0,97,0.00,,,0.00,WUHU216DAVISVP2,2013-11-26 08:08:00,
2013-11-26 00:09:00,35.3,34.5,30.26,WSW,255,0.0,1.0,97,0.00,,,0.00,WUHU216DAVISVP2,2013-11-26 08:09:00,
2013-11-26 00:10:00,35.3,34.5,30.26,WSW,254,0.0,1.0,97,0.00,,,0.00,WUHU216DAVISVP2,2013-11-26 08:10:00,
2013-11-26 00:13:00,35.3,34.5,30.26,WSW,254,0.0,1.0,97,0.00,,,0.00,WUHU216DAVISVP2,2013-11-26 08:13:00,
2013-11-26 00:15:00,35.3,34.5,30.26,WSW,254,0.0,1.0,97,0.00,,,0.00,WUHU216DAVISVP2,2013-11-26 08:15:00,
2013-11-26 00:18:00,35.3,34.5,30.26,WSW,254,0.0,1.0,97,0.00,,,0.00,WUHU216DAVISVP2,2013-11-26 08:18:00,
2013-11-26 00:19:00,35.3,34.5,30.26,WSW,254,0.0,1.0,97,0.00,,,0.00,WUHU216DAVISVP2,2013-11-26 08:19:00,
2013-11-26 00:20:00,35.2,34.4,30.26,WSW,254,0.0,1.0,97,0.00,,,0.00,WUHU216DAVISVP2,2013-11-26 08:20:00,
2013-11-26 00:23:00,35.3,34.5,30.26,WSW,246,0.0,1.0,97,0.00,,,0.00,WUHU216DAVISVP2,2013-11-26 08:23:00,
2013-11-26 00:24:00,35.2,34.4,30.26,WSW,237,0.0,1.0,97,0.00,,,0.00,WUHU216DAVISVP2,2013-11-26 08:24:00,
2013-11-26 00:25:00,35.2,34.4,30.26,SW,236,0.0,1.0,97,0.00,,,0.00,WUHU216DAVISVP2,2013-11-26 08:25:00,
2013-11-26 00:26:00,35.3,34.5,30.26,SW,236,0.0,0.0,97,0.00,,,0.00,WUHU216DAVISVP2,2013-11-26 08:26:00,
2013-11-26 00:28:00,35.3,34.5,30.25,SW,236,0.0,0.0,97,0.00,,,0.00,WUHU216DAVISVP2,2013-11-26 08:28:00,
2013-11-26 00:29:00,35.4,34.6,30.25,SW,236,0.0,0.0,97,0.00,,,0.00,WUHU216DAVISVP2,2013-11-26 08:29:00,
2013-11-26 00:30:00,35.4,34.6,30.25,SW,236,0.0,0.0,97,0.00,,,0.00,WUHU216DAVISVP2,2013-11-26 08:30:00,
2013-11-26 00:31:00,35.4,34.6,30.25,SW,236,0.0,0.0,97,0.00,,,0.00,WUHU216DAVISVP2,2013-11-26 08:31:00,
2013-11-26 00:33:00,35.5,34.7,30.26,SW,236,0.0,0.0,97,0.00,,,0.00,WUHU216DAVISVP2,2013-11-26 08:33:00,
2013-11-26 00:34:00,35.4,34.6,30.26,SW,236,0.0,0.0,97,0.00,,,0.00,WUHU216DAVISVP2,2013-11-26 08:34:00,
2013-11-26 00:35:00,35.5,34.7,30.26,SW,232,0.0,0.0,97,0.00,,,0.00,WUHU216DAVISVP2,2013-11-26 08:35:00,
2013-11-26 00:36:00,35.5,34.7,30.26,SW,232,0.0,0.0,97,0.00,,,0.00,WUHU216DAVISVP2,2013-11-26 08:36:00,
2013-11-26 00:38:00,35.6,34.8,30.26,SE,140,0.0,0.0,97,0.00,,,0.00,WUHU216DAVISVP2,2013-11-26 08:38:00,
2013-11-26 00:39:00,35.6,34.8,30.26,SE,140,0.0,0.0,97,0.00,,,0.00,WUHU216DAVISVP2,2013-11-26 08:39:00,
2013-11-26 00:40:00,35.6,34.8,30.26,SE,140,0.0,0.0,97,0.00,,,0.00,WUHU216DAVISVP2,2013-11-26 08:40:00,
2013-11-26 00:41:00,35.7,34.9,30.26,SE,140,0.0,0.0,97,0.00,,,0.00,WUHU216DAVISVP2,2013-11-26 08:41:00,
2013-11-26 00:44:00,35.9,35.1,30.25,ESE,118,0.0,1.0,97,0.00,,,0.00,WUHU216DAVISVP2,2013-11-26 08:44:00,
2013-11-26 00:45:00,36.0,35.2,30.25,ESE,118,0.0,1.0,97,0.00,,,0.00,WUHU216DAVISVP2,2013-11-26 08:45:00,
2013-11-26 00:47:00,36.0,35.2,30.25,ESE,118,0.0,1.0,97,0.00,,,0.00,WUHU216DAVISVP2,2013-11-26 08:47:00,
2013-11-26 00:49:00,36.1,35.3,30.25,ESE,118,0.0,1.0,97,0.00,,,0.00,WUHU216DAVISVP2,2013-11-26 08:49:00,
2013-11-26 00:50:00,36.1,35.3,30.25,ESE,118,0.0,1.0,97,0.00,,,0.00,WUHU216DAVISVP2,2013-11-26 08:50:00,
2013-11-26 00:52:00,36.0,35.2,30.25,SE,142,0.0,1.0,97,0.00,,,0.00,WUHU216DAVISVP2,2013-11-26 08:52:00,
2013-11-26 00:54:00,36.0,35.2,30.25,SE,142,0.0,1.0,97,0.00,,,0.00,WUHU216DAVISVP2,2013-11-26 08:54:00,
2013-11-26 00:55:00,36.0,35.2,30.25,SE,142,0.0,1.0,97,0.00,,,0.00,WUHU216DAVISVP2,2013-11-26 08:55:00,
2013-11-26 00:57:00,36.0,35.2,30.25,SE,142,0.0,1.0,97,0.00,,,0.00,WUHU216DAVISVP2,2013-11-26 08:57:00,
2013-11-26 00:58:00,36.1,35.3,30.25,SE,142,0.0,1.0,97,0.00,,,0.00,WUHU216DAVISVP2,2013-11-26 08:58:00,
2013-11-26 00:59:00,36.1,35.3,30.25,SE,142,0.0,1.0,97,0.00,,,0.00,WUHU216DAVISVP2,2013-11-26 08:59:00,
2013-11-26 01:00:00,36.1,35.3,30.25,SE,142,0.0,1.0,97,0.00,,,0.00,WUHU216DAVISVP2,2013-11-26 09:00:00,
2013-11-26 01:01:00,36.1,35.3,30.25,SE,142,0.0,1.0,97,0.00,,,0.00,WUHU216DAVISVP2,2013-11-26 09:01:00,
2013-11-26 01:02:00,36.2,35.4,30.25,SE,139,0.0,0.0,97,0.00,,,0.00,WUHU216DAVISVP2,2013-11-26 09:02:00,
2013-11-26 01:03:00,36.2,35.4,30.25,SSE,157,0.0,0.0,97,0.00,,,0.00,WUHU216DAVISVP2,2013-11-26 09:03:00,
2013-11-26 01:04:00,36.3,35.5,30.24,SSE,157,0.0,0.0,97,0.00,,,0.00,WUHU216DAVISVP2,2013-11-26 09:04:00,
2013-11-26 01:05:00,36.3,35.5,30.24,SSE,157,0.0,0.0,97,0.00,,,0.00,WUHU216DAVISVP2,2013-11-26 09:05:00,
2013-11-26 01:06:00,36.3,35.5,30.24,SE,125,0.0,1.0,97,0.00,,,0.00,WUHU216DAVISVP2,2013-11-26 09:06:00,
2013-11-26 01:07:00,36.3,35.5,30.24,SE,125,0.0,1.0,97,0.00,,,0.00,WUHU216DAVISVP2,2013-11-26 09:07:00,
2013-11-26 01:09:00,36.3,35.5,30.24,SSE,158,0.0,1.0,97,0.00,,,0.00,WUHU216DAVISVP2,2013-11-26 09:09:00,
2013-11-26 01:10:00,36.3,35.5,30.24,SSE,149,0.0,1.0,97,0.00,,,0.00,WUHU216DAVISVP2,2013-11-26 09:10:00,
2013-11-26 01:11:00,36.3,35.5,30.24,SSE,155,0.0,1.0,97,0.00,,,0.00,WUHU216DAVISVP2,2013-11-26 09:11:00,
2013-11-26 01:13:00,36.3,35.5,30.24,South,171,0.0,1.0,97,0.00,,,0.00,WUHU216DAVISVP2,2013-11-26 09:13:00,
2013-11-26 01:14:00,36.3,35.5,30.24,SSW,207,0.0,1.0,97,0.00,,,0.00,WUHU216DAVISVP2,2013-11-26 09:14:00,
2013-11-26 01:15:00,36.4,35.6,30.24,SSW,207,0.0,1.0,97,0.00,,,0.00,WUHU216DAVISVP2,2013-11-26 09:15:00,
2013-11-26 01:16:00,36.4,35.6,30.24,SSW,207,0.0,1.0,97,0.00,,,0.00,WUHU216DAVISVP2,2013-11-26 09:16:00,
2013-11-26 01:18:00,36.5,35.7,30.24,SW,226,0.0,1.0,97,0.00,,,0.00,WUHU216DAVISVP2,2013-11-26 09:18:00,
2013-11-26 01:19:00,36.6,35.8,30.24,SE,124,0.0,1.0,97,0.00,,,0.00,WUHU216DAVISVP2,2013-11-26 09:19:00,
2013-11-26 01:20:00,36.6,35.8,30.24,SW,224,0.0,1.0,97,0.00,,,0.00,WUHU216DAVISVP2,2013-11-26 09:20:00,
2013-11-26 01:21:00,36.6,35.8,30.24,South,176,0.0,1.0,97,0.00,,,0.00,WUHU216DAVISVP2,2013-11-26 09:21:00,
2013-11-26 01:23:00,36.8,36.0,30.24,SSE,148,0.0,1.0,97,0.00,,,0.00,WUHU216DAVISVP2,2013-11-26 09:23:00,
2013-11-26 01:24:00,36.8,35.7,30.24,SE,139,0.0,1.0,96,0.00,,,0.00,WUHU216DAVISVP2,2013-11-26 09:24:00,
2013-11-26 01:25:00,36.9,35.8,30.24,SE,139,0.0,1.0,96,0.00,,,0.00,WUHU216DAVISVP2,2013-11-26 09:25:00,
2013-11-26 01:26:00,36.9,35.8,30.24,SE,139,0.0,1.0,96,0.00,,,0.00,WUHU216DAVISVP2,2013-11-26 09:26:00,
2013-11-26 01:28:00,37.0,35.9,30.24,SSE,156,0.0,1.0,96,0.00,,,0.00,WUHU216DAVISVP2,2013-11-26 09:28:00,
2013-11-26 01:29:00,37.0,35.9,30.24,SSE,156,0.0,1.0,96,0.00,,,0.00,WUHU216DAVISVP2,2013-11-26 09:29:00,
2013-11-26 01:30:00,37.0,35.9,30.25,SSE,156,0.0,1.0,96,0.00,,,0.00,WUHU216DAVISVP2,2013-11-26 09:30:00,
2013-11-26 01:31:00,37.0,35.9,30.25,SSE,156,0.0,1.0,96,0.00,,,0.00,WUHU216DAVISVP2,2013-11-26 09:31:00,
2013-11-26 01:32:00,37.1,36.0,30.25,SSE,155,0.0,1.0,96,0.00,,,0.00,WUHU216DAVISVP2,2013-11-26 09:32:00,
2013-11-26 01:33:00,37.0,35.9,30.24,SSE,149,0.0,1.0,96,0.00,,,0.00,WUHU216DAVISVP2,2013-11-26 09:33:00,
2013-11-26 01:34:00,37.1,35.8,30.24,SSE,149,0.0,1.0,95,0.00,,,0.00,WUHU216DAVISVP2,2013-11-26 09:34:00,
2013-11-26 01:36:00,37.1,35.8,30.25,SE,129,0.0,1.0,95,0.00,,,0.00,WUHU216DAVISVP2,2013-11-26 09:36:00,
2013-11-26 01:37:00,37.1,35.8,30.25,SE,129,0.0,1.0,95,0.00,,,0.00,WUHU216DAVISVP2,2013-11-26 09:37:00,
2013-11-26 01:38:00,37.1,35.8,30.25,SE,129,0.0,1.0,95,0.00,,,0.00,WUHU216DAVISVP2,2013-11-26 09:38:00,
2013-11-26 01:40:00,37.1,35.8,30.24,SE,129,0.0,1.0,95,0.00,,,0.00,WUHU216DAVISVP2,2013-11-26 09:40:00,
2013-11-26 01:41:00,37.0,35.7,30.24,SE,129,0.0,1.0,95,0.00,,,0.00,WUHU216DAVISVP2,2013-11-26 09:41:00,
2013-11-26 01:42:00,37.0,35.7,30.24,SE,129,0.0,1.0,95,0.00,,,0.00,WUHU216DAVISVP2,2013-11-26 09:42:00,
2013-11-26 01:43:00,36.9,35.6,30.24,SE,129,0.0,1.0,95,0.00,,,0.00,WUHU216DAVISVP2,2013-11-26 09:43:00,
2013-11-26 01:46:00,36.9,35.6,30.24,SE,129,0.0,0.0,95,0.00,,,0.00,WUHU216DAVISVP2,2013-11-26 09:46:00,
2013-11-26 01:47:00,36.9,35.6,30.24,SE,129,0.0,0.0,95,0.00,,,0.00,WUHU216DAVISVP2,2013-11-26 09:47:00,
2013-11-26 01:49:00,36.9,35.6,30.24,SSW,213,0.0,1.0,95,0.00,,,0.00,WUHU216DAVISVP2,2013-11-26 09:49:00,
2013-11-26 01:51:00,37.0,35.7,30.24,SW,220,0.0,1.0,95,0.00,,,0.00,WUHU216DAVISVP2,2013-11-26 09:51:00,
2013-11-26 01:52:00,37.0,35.7,30.24,SSW,200,0.0,1.0,95,0.00,,,0.00,WUHU216DAVISVP2,2013-11-26 09:52:00,
2013-11-26 01:53:00,37.1,35.8,30.24,SSW,212,0.0,1.0,95,0.00,,,0.00,WUHU216DAVISVP2,2013-11-26 09:53:00,
2013-11-26 01:54:00,37.2,35.9,30.25,SSW,204,0.0,1.0,95,0.00,,,0.00,WUHU216DAVISVP2,2013-11-26 09:54:00,
2013-11-26 01:56:00,37.3,36.0,30.25,South,169,0.0,1.0,95,0.00,,,0.00,WUHU216DAVISVP2,2013-11-26 09:56:00,
2013-11-26 01:57:00,37.3,36.0,30.25,South,169,0.0,1.0,95,0.00,,,0.00,WUHU216DAVISVP2,2013-11-26 09:57:00,
2013-11-26 01:58:00,37.4,35.8,30.25,South,169,0.0,1.0,94,0.00,,,0.00,WUHU216DAVISVP2,2013-11-26 09:58:00,
2013-11-26 01:59:00,37.4,35.8,30.25,South,189,0.0,1.0,94,0.00,,,0.00,WUHU216DAVISVP2,2013-11-26 09:59:00,
2013-11-26 02:01:00,37.5,35.9,30.25,SSW,213,0.0,1.0,94,0.00,,,0.00,WUHU216DAVISVP2,2013-11-26 10:01:00,
2013-11-26 02:02:00,37.5,35.9,30.25,SE,129,0.0,1.0,94,0.00,,,0.00,WUHU216DAVISVP2,2013-11-26 10:02:00,
2013-11-26 02:03:00,37.5,35.9,30.25,SE,128,0.0,1.0,94,0.00,,,0.00,WUHU216DAVISVP2,2013-11-26 10:03:00,
2013-11-26 02:04:00,37.5,35.9,30.25,SE,128,0.0,1.0,94,0.00,,,0.00,WUHU216DAVISVP2,2013-11-26 10:04:00,
2013-11-26 02:07:00,37.6,35.7,30.25,SSE,162,0.0,1.0,93,0.00,,,0.00,WUHU216DAVISVP2,2013-11-26 10:07:00,
2013-11-26 02:08:00,37.5,35.6,30.25,WSW,239,1.0,1.0,93,0.00,,,0.00,WUHU216DAVISVP2,2013-11-26 10:08:00,
2013-11-26 02:09:00,37.6,35.7,30.25,SW,235,0.0,1.0,93,0.00,,,0.00,WUHU216DAVISVP2,2013-11-26 10:09:00,
2013-11-26 02:12:00,37.5,35.6,30.25,SSW,196,0.0,1.0,93,0.00,,,0.00,WUHU216DAVISVP2,2013-11-26 10:12:00,
2013-11-26 02:13:00,37.5,35.6,30.25,SE,146,0.0,1.0,93,0.00,,,0.00,WUHU216DAVISVP2,2013-11-26 10:13:00,
2013-11-26 02:14:00,37.5,35.6,30.25,ESE,123,0.0,1.0,93,0.00,,,0.00,WUHU216DAVISVP2,2013-11-26 10:14:00,
2013-11-26 02:17:00,37.4,35.5,30.25,SSE,163,0.0,1.0,93,0.00,,,0.00,WUHU216DAVISVP2,2013-11-26 10:17:00,
2013-11-26 02:18:00,37.5,35.6,30.25,South,179,0.0,1.0,93,0.00,,,0.00,WUHU216DAVISVP2,2013-11-26 10:18:00,
2013-11-26 02:19:00,37.5,35.7,30.25,SSW,198,0.0,1.0,93,0.00,,,0.00,WUHU216DAVISVP2,2013-11-26 10:19:00,
2013-11-26 02:22:00,37.5,35.7,30.25,SSW,199,0.0,1.0,93,0.00,,,0.00,WUHU216DAVISVP2,2013-11-26 10:22:00,
2013-11-26 02:23:00,37.5,35.7,30.25,SSW,199,0.0,1.0,93,0.00,,,0.00,WUHU216DAVISVP2,2013-11-26 10:23:00,
2013-11-26 02:24:00,37.5,35.7,30.25,SSW,199,0.0,1.0,93,0.00,,,0.00,WUHU216DAVISVP2,2013-11-26 10:24:00,
2013-11-26 02:25:00,37.4,35.3,30.25,SSW,199,0.0,1.0,92,0.00,,,0.00,WUHU216DAVISVP2,2013-11-26 10:25:00,
2013-11-26 02:27:00,37.3,35.1,30.25,SSW,199,0.0,1.0,92,0.00,,,0.00,WUHU216DAVISVP2,2013-11-26 10:27:00,
2013-11-26 02:28:00,37.3,35.1,30.25,SSW,199,0.0,1.0,92,0.00,,,0.00,WUHU216DAVISVP2,2013-11-26 10:28:00,
2013-11-26 02:29:00,37.2,35.0,30.25,SSW,199,0.0,1.0,92,0.00,,,0.00,WUHU216DAVISVP2,2013-11-26 10:29:00,
2013-11-26 02:30:00,37.1,34.9,30.25,SSW,199,0.0,1.0,92,0.00,,,0.00,WUHU216DAVISVP2,2013-11-26 10:30:00,
2013-11-26 02:32:00,37.1,35.2,30.25,SW,236,0.0,1.0,93,0.00,,,0.00,WUHU216DAVISVP2,2013-11-26 10:32:00,
2013-11-26 02:33:00,37.0,35.1,30.25,SSW,211,0.0,1.0,93,0.00,,,0.00,WUHU216DAVISVP2,2013-11-26 10:33:00,
2013-11-26 02:34:00,37.0,35.1,30.25,SE,134,0.0,0.0,93,0.00,,,0.00,WUHU216DAVISVP2,2013-11-26 10:34:00,
2013-11-26 02:35:00,37.0,35.1,30.25,WSW,238,0.0,0.0,93,0.00,,,0.00,WUHU216DAVISVP2,2013-11-26 10:35:00,
2013-11-26 02:37:00,37.0,35.1,30.25,South,173,0.0,0.0,93,0.00,,,0.00,WUHU216DAVISVP2,2013-11-26 10:37:00,
2013-11-26 02:38:00,36.9,35.0,30.25,SSW,207,0.0,0.0,93,0.00,,,0.00,WUHU216DAVISVP2,2013-11-26 10:38:00,
2013-11-26 02:39:00,36.9,35.0,30.25,SSW,207,0.0,0.0,93,0.00,,,0.00,WUHU216DAVISVP2,2013-11-26 10:39:00,
2013-11-26 02:40:00,36.9,35.0,30.25,SSW,207,0.0,0.0,93,0.00,,,0.00,WUHU216DAVISVP2,2013-11-26 10:40:00,
2013-11-26 02:41:00,36.9,35.0,30.25,SSW,207,0.0,0.0,93,0.00,,,0.00,WUHU216DAVISVP2,2013-11-26 10:41:00,
2013-11-26 02:43:00,36.8,34.9,30.25,SSE,150,0.0,0.0,93,0.00,,,0.00,WUHU216DAVISVP2,2013-11-26 10:43:00,
2013-11-26 02:44:00,36.8,34.9,30.25,SSE,150,0.0,0.0,93,0.00,,,0.00,WUHU216DAVISVP2,2013-11-26 10:44:00,
2013-11-26 02:46:00,36.8,34.9,30.25,SSW,205,0.0,0.0,93,0.00,,,0.00,WUHU216DAVISVP2,2013-11-26 10:46:00,
2013-11-26 02:48:00,36.8,35.2,30.25,SSW,207,0.0,0.0,94,0.00,,,0.00,WUHU216DAVISVP2,2013-11-26 10:48:00,
2013-11-26 02:50:00,36.9,35.0,30.25,SSE,160,0.0,1.0,93,0.00,,,0.00,WUHU216DAVISVP2,2013-11-26 10:50:00,
2013-11-26 02:51:00,36.9,35.3,30.25,South,180,0.0,1.0,94,0.00,,,0.00,WUHU216DAVISVP2,2013-11-26 10:51:00,
2013-11-26 02:53:00,37.1,35.5,30.25,WSW,238,0.0,1.0,94,0.00,,,0.00,WUHU216DAVISVP2,2013-11-26 10:53:00,
2013-11-26 02:55:00,37.1,35.2,30.24,SE,143,0.0,1.0,93,0.00,,,0.00,WUHU216DAVISVP2,2013-11-26 10:55:00,
2013-11-26 02:56:00,37.1,35.2,30.24,SE,143,0.0,1.0,93,0.00,,,0.00,WUHU216DAVISVP2,2013-11-26 10:56:00,
2013-11-26 02:58:00,37.1,35.3,30.24,SSW,198,0.0,1.0,93,0.00,,,0.00,WUHU216DAVISVP2,2013-11-26 10:58:00,
2013-11-26 03:00:00,37.1,35.3,30.24,SSW,198,0.0,1.0,93,0.00,,,0.00,WUHU216DAVISVP2,2013-11-26 11:00:00,
2013-11-26 03:01:00,37.0,35.2,30.23,SSW,198,0.0,1.0,93,0.00,,,0.00,WUHU216DAVISVP2,2013-11-26 11:01:00,
2013-11-26 03:02:00,37.0,35.2,30.23,SSW,198,0.0,1.0,93,0.00,,,0.00,WUHU216DAVISVP2,2013-11-26 11:02:00,
2013-11-26 03:03:00,37.1,35.3,30.23,SSE,161,0.0,1.0,93,0.00,,,0.00,WUHU216DAVISVP2,2013-11-26 11:03:00,
2013-11-26 03:04:00,37.1,35.3,30.24,SSW,205,0.0,1.0,93,0.00,,,0.00,WUHU216DAVISVP2,2013-11-26 11:04:00,
2013-11-26 03:05:00,37.1,35.2,30.24,WSW,245,0.0,1.0,93,0.00,,,0.00,WUHU216DAVISVP2,2013-11-26 11:05:00,
2013-11-26 03:06:00,37.1,35.2,30.24,SW,215,0.0,1.0,93,0.00,,,0.00,WUHU216DAVISVP2,2013-11-26 11:06:00,
2013-11-26 03:07:00,37.2,35.3,30.24,SW,214,0.0,1.0,93,0.00,,,0.00,WUHU216DAVISVP2,2013-11-26 11:07:00,
2013-11-26 03:08:00,37.2,35.3,30.24,SSW,213,0.0,1.0,93,0.00,,,0.00,WUHU216DAVISVP2,2013-11-26 11:08:00,
2013-11-26 03:09:00,37.3,35.4,30.24,SSE,149,0.0,1.0,93,0.00,,,0.00,WUHU216DAVISVP2,2013-11-26 11:09:00,
2013-11-26 03:10:00,37.3,35.4,30.24,ESE,103,0.0,1.0,93,0.00,,,0.00,WUHU216DAVISVP2,2013-11-26 11:10:00,
2013-11-26 03:11:00,37.4,35.5,30.24,ESE,103,0.0,1.0,93,0.00,,,0.00,WUHU216DAVISVP2,2013-11-26 11:11:00,
2013-11-26 03:12:00,37.4,35.5,30.24,ESE,103,0.0,1.0,93,0.00,,,0.00,WUHU216DAVISVP2,2013-11-26 11:12:00,
2013-11-26 03:13:00,37.4,35.5,30.24,South,176,0.0,1.0,93,0.00,,,0.00,WUHU216DAVISVP2,2013-11-26 11:13:00,
2013-11-26 03:14:00,37.4,35.5,30.24,SW,232,0.0,1.0,93,0.00,,,0.00,WUHU216DAVISVP2,2013-11-26 11:14:00,
2013-11-26 03:16:00,37.5,35.6,30.24,SSE,153,0.0,2.0,93,0.00,,,0.00,WUHU216DAVISVP2,2013-11-26 11:16:00,
2013-11-26 03:17:00,37.5,35.6,30.24,West,262,1.0,2.0,93,0.00,,,0.00,WUHU216DAVISVP2,2013-11-26 11:17:00,
2013-11-26 03:18:00,37.6,35.4,30.24,SW,214,0.0,2.0,92,0.00,,,0.00,WUHU216DAVISVP2,2013-11-26 11:18:00,
2013-11-26 03:19:00,37.6,35.4,30.24,SW,217,0.0,2.0,92,0.00,,,0.00,WUHU216DAVISVP2,2013-11-26 11:19:00,
2013-11-26 03:21:00,37.6,35.4,30.24,WSW,258,0.0,2.0,92,0.00,,,0.00,WUHU216DAVISVP2,2013-11-26 11:21:00,
2013-11-26 03:22:00,37.6,35.4,30.24,SW,221,0.0,2.0,92,0.00,,,0.00,WUHU216DAVISVP2,2013-11-26 11:22:00,
2013-11-26 03:23:00,37.6,35.4,30.24,SW,221,0.0,2.0,92,0.00,,,0.00,WUHU216DAVISVP2,2013-11-26 11:23:00,
2013-11-26 03:24:00,37.6,35.4,30.24,SW,221,0.0,2.0,92,0.00,,,0.00,WUHU216DAVISVP2,2013-11-26 11:24:00,
2013-11-26 03:26:00,37.5,35.3,30.24,South,172,0.0,2.0,92,0.00,,,0.00,WUHU216DAVISVP2,2013-11-26 11:26:00,
2013-11-26 03:27:00,37.6,35.4,30.25,ESE,103,0.0,2.0,92,0.00,,,0.00,WUHU216DAVISVP2,2013-11-26 11:27:00,
2013-11-26 03:28:00,37.5,35.3,30.24,ESE,103,0.0,2.0,92,0.00,,,0.00,WUHU216DAVISVP2,2013-11-26 11:28:00,
2013-11-26 03:29:00,37.5,35.3,30.24,ESE,118,0.0,2.0,92,0.00,,,0.00,WUHU216DAVISVP2,2013-11-26 11:29:00,
2013-11-26 03:30:00,37.5,35.3,30.24,ESE,118,0.0,2.0,92,0.00,,,0.00,WUHU216DAVISVP2,2013-11-26 11:30:00,
2013-11-26 03:31:00,37.5,35.3,30.24,ESE,118,0.0,2.0,92,0.00,,,0.00,WUHU216DAVISVP2,2013-11-26 11:31:00,
2013-11-26 03:32:00,37.5,35.3,30.24,South,181,0.0,2.0,92,0.00,,,0.00,WUHU216DAVISVP2,2013-11-26 11:32:00,
2013-11-26 03:33:00,37.5,35.3,30.24,South,181,0.0,2.0,92,0.00,,,0.00,WUHU216DAVISVP2,2013-11-26 11:33:00,
2013-11-26 03:34:00,37.5,35.1,30.24,SSW,193,0.0,2.0,91,0.00,,,0.00,WUHU216DAVISVP2,2013-11-26 11:34:00,
2013-11-26 03:35:00,37.5,35.1,30.24,SSW,193,0.0,1.0,91,0.00,,,0.00,WUHU216DAVISVP2,2013-11-26 11:35:00,
2013-11-26 03:36:00,37.4,35.0,30.24,SSW,193,0.0,1.0,91,0.00,,,0.00,WUHU216DAVISVP2,2013-11-26 11:36:00,
2013-11-26 03:38:00,37.3,34.9,30.24,SSW,193,0.0,1.0,91,0.00,,,0.00,WUHU216DAVISVP2,2013-11-26 11:38:00,
2013-11-26 03:39:00,37.3,34.9,30.24,SSW,193,0.0,1.0,91,0.00,,,0.00,WUHU216DAVISVP2,2013-11-26 11:39:00,
2013-11-26 03:40:00,37.3,35.1,30.23,SSW,193,0.0,1.0,92,0.00,,,0.00,WUHU216DAVISVP2,2013-11-26 11:40:00,
2013-11-26 03:42:00,37.3,35.1,30.23,SE,131,0.0,1.0,92,0.00,,,0.00,WUHU216DAVISVP2,2013-11-26 11:42:00,
2013-11-26 03:43:00,37.3,35.1,30.23,SE,137,0.0,1.0,92,0.00,,,0.00,WUHU216DAVISVP2,2013-11-26 11:43:00,
2013-11-26 03:44:00,37.3,35.1,30.23,SE,137,0.0,1.0,92,0.00,,,0.00,WUHU216DAVISVP2,2013-11-26 11:44:00,
2013-11-26 03:45:00,37.3,35.1,30.23,SE,140,0.0,1.0,92,0.00,,,0.00,WUHU216DAVISVP2,2013-11-26 11:45:00,
2013-11-26 03:47:00,37.3,35.1,30.23,SE,138,0.0,1.0,92,0.00,,,0.00,WUHU216DAVISVP2,2013-11-26 11:47:00,
2013-11-26 03:48:00,37.3,35.1,30.23,SE,138,0.0,1.0,92,0.00,,,0.00,WUHU216DAVISVP2,2013-11-26 11:48:00,
2013-11-26 03:49:00,37.3,35.1,30.23,SE,134,0.0,1.0,92,0.00,,,0.00,WUHU216DAVISVP2,2013-11-26 11:49:00,
2013-11-26 03:51:00,37.3,35.1,30.23,SE,124,0.0,1.0,92,0.00,,,0.00,WUHU216DAVISVP2,2013-11-26 11:51:00,
2013-11-26 03:52:00,37.4,35.3,30.23,North,357,0.0,1.0,92,0.00,,,0.00,WUHU216DAVISVP2,2013-11-26 11:52:00,
2013-11-26 03:53:00,37.3,35.2,30.23,North,357,0.0,1.0,92,0.00,,,0.00,WUHU216DAVISVP2,2013-11-26 11:53:00,
2013-11-26 03:54:00,37.3,35.1,30.23,North,357,0.0,1.0,92,0.00,,,0.00,WUHU216DAVISVP2,2013-11-26 11:54:00,
2013-11-26 03:55:00,37.4,35.2,30.23,SSW,212,0.0,1.0,92,0.00,,,0.00,WUHU216DAVISVP2,2013-11-26 11:55:00,
2013-11-26 03:56:00,37.4,35.3,30.22,SW,224,0.0,1.0,92,0.00,,,0.00,WUHU216DAVISVP2,2013-11-26 11:56:00,
2013-11-26 03:57:00,37.3,35.2,30.23,SW,224,0.0,1.0,92,0.00,,,0.00,WUHU216DAVISVP2,2013-11-26 11:57:00,
2013-11-26 03:58:00,37.3,35.2,30.23,SW,228,0.0,1.0,92,0.00,,,0.00,WUHU216DAVISVP2,2013-11-26 11:58:00,
2013-11-26 03:59:00,37.4,35.3,30.23,South,172,0.0,1.0,92,0.00,,,0.00,WUHU216DAVISVP2,2013-11-26 11:59:00,
2013-11-26 04:00:00,37.4,35.3,30.23,SSE,165,0.0,1.0,92,0.00,,,0.00,WUHU216DAVISVP2,2013-11-26 12:00:00,
2013-11-26 04:01:00,37.5,35.4,30.23,SW,229,0.0,1.0,92,0.00,,,0.00,WUHU216DAVISVP2,2013-11-26 12:01:00,
2013-11-26 04:02:00,37.6,35.5,30.23,SSW,193,0.0,1.0,92,0.00,,,0.00,WUHU216DAVISVP2,2013-11-26 12:02:00,
2013-11-26 04:04:00,37.6,35.5,30.23,SSW,199,0.0,1.0,92,0.00,,,0.00,WUHU216DAVISVP2,2013-11-26 12:04:00,
2013-11-26 04:05:00,37.7,35.6,30.23,South,179,0.0,1.0,92,0.00,,,0.00,WUHU216DAVISVP2,2013-11-26 12:05:00,
2013-11-26 04:06:00,37.7,35.3,30.24,South,179,0.0,1.0,91,0.00,,,0.00,WUHU216DAVISVP2,2013-11-26 12:06:00,
2013-11-26 04:08:00,37.8,35.4,30.24,WSW,245,0.0,1.0,91,0.00,,,0.00,WUHU216DAVISVP2,2013-11-26 12:08:00,
2013-11-26 04:09:00,37.8,35.4,30.24,WSW,245,0.0,1.0,91,0.00,,,0.00,WUHU216DAVISVP2,2013-11-26 12:09:00,
2013-11-26 04:10:00,37.8,35.4,30.23,WSW,245,0.0,1.0,91,0.00,,,0.00,WUHU216DAVISVP2,2013-11-26 12:10:00,
2013-11-26 04:11:00,37.8,35.4,30.23,WSW,245,0.0,1.0,91,0.00,,,0.00,WUHU216DAVISVP2,2013-11-26 12:11:00,
2013-11-26 04:13:00,37.8,35.4,30.23,WSW,245,0.0,1.0,91,0.00,,,0.00,WUHU216DAVISVP2,2013-11-26 12:13:00,
2013-11-26 04:14:00,37.8,35.4,30.23,WSW,245,0.0,1.0,91,0.00,,,0.00,WUHU216DAVISVP2,2013-11-26 12:14:00,
2013-11-26 04:16:00,37.8,35.4,30.23,South,172,0.0,1.0,91,0.00,,,0.00,WUHU216DAVISVP2,2013-11-26 12:16:00,
2013-11-26 04:17:00,37.8,35.4,30.23,SSW,198,0.0,1.0,91,0.00,,,0.00,WUHU216DAVISVP2,2013-11-26 12:17:00,
2013-11-26 04:19:00,37.8,35.4,30.23,SSW,196,0.0,1.0,91,0.00,,,0.00,WUHU216DAVISVP2,2013-11-26 12:19:00,
2013-11-26 04:20:00,37.9,35.5,30.23,SSW,196,0.0,1.0,91,0.00,,,0.00,WUHU216DAVISVP2,2013-11-26 12:20:00,
2013-11-26 04:21:00,37.9,35.5,30.23,SSW,202,0.0,1.0,91,0.00,,,0.00,WUHU216DAVISVP2,2013-11-26 12:21:00,
2013-11-26 04:22:00,37.9,35.5,30.23,SSE,164,0.0,1.0,91,0.00,,,0.00,WUHU216DAVISVP2,2013-11-26 12:22:00,
2013-11-26 04:24:00,37.9,35.5,30.23,SSW,206,0.0,1.0,91,0.00,,,0.00,WUHU216DAVISVP2,2013-11-26 12:24:00,
2013-11-26 04:25:00,37.9,35.5,30.23,SSW,206,0.0,1.0,91,0.00,,,0.00,WUHU216DAVISVP2,2013-11-26 12:25:00,
2013-11-26 04:26:00,37.9,35.5,30.23,SSW,206,0.0,1.0,91,0.00,,,0.00,WUHU216DAVISVP2,2013-11-26 12:26:00,
2013-11-26 04:27:00,37.9,35.5,30.23,South,169,0.0,1.0,91,0.00,,,0.00,WUHU216DAVISVP2,2013-11-26 12:27:00,
2013-11-26 04:29:00,37.8,35.4,30.23,West,269,0.0,0.0,91,0.00,,,0.00,WUHU216DAVISVP2,2013-11-26 12:29:00,
2013-11-26 04:30:00,37.8,35.4,30.23,West,269,0.0,0.0,91,0.00,,,0.00,WUHU216DAVISVP2,2013-11-26 12:30:00,
2013-11-26 04:31:00,37.8,35.4,30.23,West,269,0.0,0.0,91,0.00,,,0.00,WUHU216DAVISVP2,2013-11-26 12:31:00,
2013-11-26 04:32:00,37.8,35.4,30.23,West,269,0.0,0.0,91,0.00,,,0.00,WUHU216DAVISVP2,2013-11-26 12:32:00,
2013-11-26 04:33:00,37.8,35.4,30.23,West,269,0.0,0.0,91,0.00,,,0.00,WUHU216DAVISVP2,2013-11-26 12:33:00,
2013-11-26 04:34:00,37.8,35.4,30.23,WSW,243,0.0,1.0,91,0.00,,,0.00,WUHU216DAVISVP2,2013-11-26 12:34:00,
2013-11-26 04:35:00,37.8,35.4,30.23,WSW,243,0.0,1.0,91,0.00,,,0.00,WUHU216DAVISVP2,2013-11-26 12:35:00,
2013-11-26 04:36:00,37.9,35.5,30.23,WSW,256,0.0,1.0,91,0.00,,,0.00,WUHU216DAVISVP2,2013-11-26 12:36:00,
2013-11-26 04:37:00,37.9,35.5,30.23,WSW,243,0.0,1.0,91,0.00,,,0.00,WUHU216DAVISVP2,2013-11-26 12:37:00,
2013-11-26 04:39:00,37.9,35.5,30.23,SSW,210,0.0,1.0,91,0.00,,,0.00,WUHU216DAVISVP2,2013-11-26 12:39:00,
2013-11-26 04:40:00,38.0,35.6,30.23,SW,220,0.0,1.0,91,0.00,,,0.00,WUHU216DAVISVP2,2013-11-26 12:40:00,
2013-11-26 04:41:00,38.0,35.6,30.23,SW,220,0.0,1.0,91,0.00,,,0.00,WUHU216DAVISVP2,2013-11-26 12:41:00,
2013-11-26 04:42:00,38.0,35.6,30.23,SSW,195,0.0,1.0,91,0.00,,,0.00,WUHU216DAVISVP2,2013-11-26 12:42:00,
2013-11-26 04:44:00,38.0,35.6,30.23,SSW,207,0.0,1.0,91,0.00,,,0.00,WUHU216DAVISVP2,2013-11-26 12:44:00,
2013-11-26 04:45:00,38.0,35.6,30.22,SW,221,0.0,1.0,91,0.00,,,0.00,WUHU216DAVISVP2,2013-11-26 12:45:00,
2013-11-26 04:46:00,38.0,35.6,30.22,SW,219,0.0,1.0,91,0.00,,,0.00,WUHU216DAVISVP2,2013-11-26 12:46:00,
2013-11-26 04:47:00,38.0,35.6,30.22,SW,219,0.0,1.0,91,0.00,,,0.00,WUHU216DAVISVP2,2013-11-26 12:47:00,
2013-11-26 04:49:00,38.0,35.6,30.22,SSW,194,0.0,1.0,91,0.00,,,0.00,WUHU216DAVISVP2,2013-11-26 12:49:00,
2013-11-26 04:50:00,38.0,35.6,30.22,SSW,194,0.0,1.0,91,0.00,,,0.00,WUHU216DAVISVP2,2013-11-26 12:50:00,
2013-11-26 04:51:00,38.0,35.6,30.22,SSW,198,0.0,1.0,91,0.00,,,0.00,WUHU216DAVISVP2,2013-11-26 12:51:00,
2013-11-26 04:53:00,38.0,35.6,30.22,SSW,198,0.0,1.0,91,0.00,,,0.00,WUHU216DAVISVP2,2013-11-26 12:53:00,
2013-11-26 04:54:00,37.9,35.5,30.22,SSW,203,0.0,1.0,91,0.00,,,0.00,WUHU216DAVISVP2,2013-11-26 12:54:00,
2013-11-26 04:55:00,37.9,35.5,30.22,SSW,203,0.0,1.0,91,0.00,,,0.00,WUHU216DAVISVP2,2013-11-26 12:55:00,
2013-11-26 04:56:00,37.9,35.5,30.22,SSW,203,0.0,1.0,91,0.00,,,0.00,WUHU216DAVISVP2,2013-11-26 12:56:00,
2013-11-26 04:57:00,37.9,35.2,30.22,SSW,203,0.0,1.0,90,0.00,,,0.00,WUHU216DAVISVP2,2013-11-26 12:57:00,
2013-11-26 04:58:00,37.9,35.5,30.22,West,265,0.0,1.0,91,0.00,,,0.00,WUHU216DAVISVP2,2013-11-26 12:58:00,
2013-11-26 05:00:00,37.9,35.5,30.22,SSE,165,0.0,1.0,91,0.00,,,0.00,WUHU216DAVISVP2,2013-11-26 13:00:00,
2013-11-26 05:01:00,37.9,35.5,30.22,SW,232,0.0,1.0,91,0.00,,,0.00,WUHU216DAVISVP2,2013-11-26 13:01:00,
2013-11-26 05:02:00,37.9,35.5,30.22,SSW,201,0.0,1.0,91,0.00,,,0.00,WUHU216DAVISVP2,2013-11-26 13:02:00,
2013-11-26 05:03:00,37.9,35.5,30.22,West,260,0.0,1.0,91,0.00,,,0.00,WUHU216DAVISVP2,2013-11-26 13:03:00,
2013-11-26 05:05:00,38.0,35.6,30.22,WSW,252,0.0,1.0,91,0.00,,,0.00,WUHU216DAVISVP2,2013-11-26 13:05:00,
2013-11-26 05:06:00,38.0,35.6,30.22,SSE,151,0.0,1.0,91,0.00,,,0.00,WUHU216DAVISVP2,2013-11-26 13:06:00,
2013-11-26 05:07:00,38.0,35.6,30.22,SW,219,0.0,1.0,91,0.00,,,0.00,WUHU216DAVISVP2,2013-11-26 13:07:00,
2013-11-26 05:08:00,38.0,35.6,30.22,SW,216,0.0,1.0,91,0.00,,,0.00,WUHU216DAVISVP2,2013-11-26 13:08:00,
2013-11-26 05:10:00,38.0,35.6,30.22,SW,217,0.0,1.0,91,0.00,,,0.00,WUHU216DAVISVP2,2013-11-26 13:10:00,
2013-11-26 05:11:00,38.0,35.6,30.22,SW,217,0.0,1.0,91,0.00,,,0.00,WUHU216DAVISVP2,2013-11-26 13:11:00,
2013-11-26 05:12:00,38.0,35.6,30.22,SSW,208,0.0,1.0,91,0.00,,,0.00,WUHU216DAVISVP2,2013-11-26 13:12:00,
2013-11-26 05:13:00,38.0,35.6,30.22,SW,231,0.0,1.0,91,0.00,,,0.00,WUHU216DAVISVP2,2013-11-26 13:13:00,
2013-11-26 05:15:00,38.1,35.7,30.22,WSW,237,0.0,1.0,91,0.00,,,0.00,WUHU216DAVISVP2,2013-11-26 13:15:00,
2013-11-26 05:16:00,38.1,35.4,30.22,WSW,237,0.0,1.0,90,0.00,,,0.00,WUHU216DAVISVP2,2013-11-26 13:16:00,
2013-11-26 05:17:00,38.1,35.4,30.22,WSW,237,0.0,1.0,90,0.00,,,0.00,WUHU216DAVISVP2,2013-11-26 13:17:00,
2013-11-26 05:18:00,38.0,35.6,30.22,SW,231,0.0,1.0,91,0.00,,,0.00,WUHU216DAVISVP2,2013-11-26 13:18:00,
2013-11-26 05:21:00,38.0,35.3,30.21,SW,233,0.0,1.0,90,0.00,,,0.00,WUHU216DAVISVP2,2013-11-26 13:21:00,
2013-11-26 05:22:00,38.0,35.3,30.21,SW,233,0.0,1.0,90,0.00,,,0.00,WUHU216DAVISVP2,2013-11-26 13:22:00,
2013-11-26 05:23:00,38.0,35.3,30.21,SW,233,0.0,1.0,90,0.00,,,0.00,WUHU216DAVISVP2,2013-11-26 13:23:00,
2013-11-26 05:26:00,37.9,35.5,30.21,SSW,196,0.0,1.0,91,0.00,,,0.00,WUHU216DAVISVP2,2013-11-26 13:26:00,
2013-11-26 05:27:00,37.9,35.5,30.21,SSW,210,0.0,1.0,91,0.00,,,0.00,WUHU216DAVISVP2,2013-11-26 13:27:00,
2013-11-26 05:29:00,38.0,35.6,30.21,South,169,0.0,1.0,91,0.00,,,0.00,WUHU216DAVISVP2,2013-11-26 13:29:00,
2013-11-26 05:31:00,38.1,35.7,30.21,SW,233,0.0,1.0,91,0.00,,,0.00,WUHU216DAVISVP2,2013-11-26 13:31:00,
2013-11-26 05:32:00,38.2,35.8,30.21,SW,233,0.0,1.0,91,0.00,,,0.00,WUHU216DAVISVP2,2013-11-26 13:32:00,
2013-11-26 05:34:00,38.3,35.9,30.21,SW,236,0.0,1.0,91,0.00,,,0.00,WUHU216DAVISVP2,2013-11-26 13:34:00,
2013-11-26 05:36:00,38.4,35.7,30.22,SSW,210,0.0,1.0,90,0.00,,,0.00,WUHU216DAVISVP2,2013-11-26 13:36:00,
2013-11-26 05:37:00,38.4,35.7,30.22,SW,228,0.0,1.0,90,0.00,,,0.00,WUHU216DAVISVP2,2013-11-26 13:37:00,
2013-11-26 05:38:00,38.5,35.8,30.22,SW,226,0.0,1.0,90,0.00,,,0.00,WUHU216DAVISVP2,2013-11-26 13:38:00,
2013-11-26 05:39:00,38.5,35.8,30.22,SSW,211,0.0,1.0,90,0.00,,,0.00,WUHU216DAVISVP2,2013-11-26 13:39:00,
2013-11-26 05:41:00,38.6,35.9,30.22,SSW,206,0.0,1.0,90,0.00,,,0.00,WUHU216DAVISVP2,2013-11-26 13:41:00,
2013-11-26 05:43:00,38.6,35.9,30.22,SSW,207,0.0,1.0,90,0.00,,,0.00,WUHU216DAVISVP2,2013-11-26 13:43:00,
2013-11-26 05:45:00,38.6,35.6,30.22,SSE,160,0.0,1.0,89,0.00,,,0.00,WUHU216DAVISVP2,2013-11-26 13:45:00,
2013-11-26 05:47:00,38.5,35.5,30.22,SSE,160,0.0,1.0,89,0.00,,,0.00,WUHU216DAVISVP2,2013-11-26 13:47:00,
2013-11-26 05:48:00,38.5,35.5,30.22,SSE,160,0.0,1.0,89,0.00,,,0.00,WUHU216DAVISVP2,2013-11-26 13:48:00,
2013-11-26 05:49:00,38.4,35.4,30.22,SSE,160,0.0,1.0,89,0.00,,,0.00,WUHU216DAVISVP2,2013-11-26 13:49:00,
2013-11-26 05:50:00,38.4,35.4,30.22,SE,146,0.0,1.0,89,0.00,,,0.00,WUHU216DAVISVP2,2013-11-26 13:50:00,
2013-11-26 05:52:00,38.3,35.3,30.22,SE,146,0.0,1.0,89,0.00,,,0.00,WUHU216DAVISVP2,2013-11-26 13:52:00,
2013-11-26 05:53:00,38.2,35.2,30.22,WSW,240,0.0,1.0,89,0.00,,,0.00,WUHU216DAVISVP2,2013-11-26 13:53:00,
2013-11-26 05:54:00,38.1,35.1,30.22,WSW,239,0.0,1.0,89,0.00,,,0.00,WUHU216DAVISVP2,2013-11-26 13:54:00,
2013-11-26 05:55:00,38.1,35.4,30.21,SW,234,0.0,1.0,90,0.00,,,0.00,WUHU216DAVISVP2,2013-11-26 13:55:00,
2013-11-26 05:57:00,38.0,35.3,30.21,South,189,0.0,1.0,90,0.00,,,0.00,WUHU216DAVISVP2,2013-11-26 13:57:00,
2013-11-26 05:58:00,37.9,35.2,30.22,South,186,0.0,0.0,90,0.00,,,0.00,WUHU216DAVISVP2,2013-11-26 13:58:00,
2013-11-26 05:59:00,37.9,35.2,30.22,South,186,0.0,0.0,90,0.00,,,0.00,WUHU216DAVISVP2,2013-11-26 13:59:00,
2013-11-26 06:00:00,37.8,35.1,30.22,South,186,0.0,0.0,90,0.00,,,0.00,WUHU216DAVISVP2,2013-11-26 14:00:00,
2013-11-26 06:01:00,37.7,35.0,30.22,South,186,0.0,0.0,90,0.00,,,0.00,WUHU216DAVISVP2,2013-11-26 14:01:00,
2013-11-26 06:03:00,37.6,34.9,30.21,South,176,0.0,0.0,90,0.00,,,0.00,WUHU216DAVISVP2,2013-11-26 14:03:00,
2013-11-26 06:04:00,37.5,34.8,30.21,South,176,0.0,0.0,90,0.00,,,0.00,WUHU216DAVISVP2,2013-11-26 14:04:00,
2013-11-26 06:05:00,37.4,34.7,30.21,South,176,0.0,0.0,90,0.00,,,0.00,WUHU216DAVISVP2,2013-11-26 14:05:00,
2013-11-26 06:06:00,37.3,34.6,30.21,South,173,0.0,0.0,90,0.00,,,0.00,WUHU216DAVISVP2,2013-11-26 14:06:00,
2013-11-26 06:08:00,37.2,34.8,30.21,SSE,155,0.0,0.0,91,0.00,,,0.00,WUHU216DAVISVP2,2013-11-26 14:08:00,
2013-11-26 06:09:00,37.2,34.8,30.21,SSE,154,0.0,0.0,91,0.00,,,0.00,WUHU216DAVISVP2,2013-11-26 14:09:00,
2013-11-26 06:10:00,37.1,34.7,30.21,SSE,154,0.0,0.0,91,0.00,,,0.00,WUHU216DAVISVP2,2013-11-26 14:10:00,
2013-11-26 06:11:00,37.1,34.7,30.21,SSE,155,0.0,0.0,91,0.00,,,0.00,WUHU216DAVISVP2,2013-11-26 14:11:00,
2013-11-26 06:13:00,36.9,34.5,30.22,SSE,155,0.0,0.0,91,0.00,,,0.00,WUHU216DAVISVP2,2013-11-26 14:13:00,
2013-11-26 06:14:00,36.9,34.5,30.21,SSE,155,0.0,0.0,91,0.00,,,0.00,WUHU216DAVISVP2,2013-11-26 14:14:00,
2013-11-26 06:16:00,36.8,34.4,30.21,SSE,156,0.0,0.0,91,0.00,,,0.00,WUHU216DAVISVP2,2013-11-26 14:16:00,
2013-11-26 06:17:00,36.7,34.3,30.22,SSE,159,0.0,0.0,91,0.00,,,0.00,WUHU216DAVISVP2,2013-11-26 14:17:00,
2013-11-26 06:19:00,36.6,34.2,30.21,SSE,159,0.0,0.0,91,0.00,,,0.00,WUHU216DAVISVP2,2013-11-26 14:19:00,
2013-11-26 06:21:00,36.5,34.3,30.21,SSW,195,0.0,0.0,92,0.00,,,0.00,WUHU216DAVISVP2,2013-11-26 14:21:00,
2013-11-26 06:22:00,36.5,34.3,30.21,SW,233,0.0,0.0,92,0.00,,,0.00,WUHU216DAVISVP2,2013-11-26 14:22:00,
2013-11-26 06:24:00,36.5,34.3,30.21,WNW,297,0.0,0.0,92,0.00,,,0.00,WUHU216DAVISVP2,2013-11-26 14:24:00,
2013-11-26 06:25:00,36.4,34.3,30.21,South,176,0.0,0.0,92,0.00,,,0.00,WUHU216DAVISVP2,2013-11-26 14:25:00,
2013-11-26 06:26:00,36.4,34.2,30.21,South,176,0.0,0.0,92,0.00,,,0.00,WUHU216DAVISVP2,2013-11-26 14:26:00,
2013-11-26 06:27:00,36.4,34.3,30.21,South,176,0.0,0.0,92,0.00,,,0.00,WUHU216DAVISVP2,2013-11-26 14:27:00,
2013-11-26 06:28:00,36.3,34.2,30.21,SE,124,0.0,1.0,92,0.00,,,0.00,WUHU216DAVISVP2,2013-11-26 14:28:00,
2013-11-26 06:29:00,36.3,34.2,30.21,SE,124,0.0,1.0,92,0.00,,,0.00,WUHU216DAVISVP2,2013-11-26 14:29:00,
2013-11-26 06:30:00,36.3,34.4,30.21,SE,124,0.0,1.0,93,0.00,,,0.00,WUHU216DAVISVP2,2013-11-26 14:30:00,
2013-11-26 06:31:00,36.3,34.5,30.21,SSE,160,0.0,1.0,93,0.00,,,0.00,WUHU216DAVISVP2,2013-11-26 14:31:00,
2013-11-26 06:33:00,36.3,34.4,30.21,SE,143,0.0,1.0,93,0.00,,,0.00,WUHU216DAVISVP2,2013-11-26 14:33:00,
2013-11-26 06:34:00,36.3,34.4,30.21,SE,143,0.0,1.0,93,0.00,,,0.00,WUHU216DAVISVP2,2013-11-26 14:34:00,
2013-11-26 06:35:00,36.3,34.4,30.20,SE,143,0.0,1.0,93,0.00,,,0.00,WUHU216DAVISVP2,2013-11-26 14:35:00,
2013-11-26 06:37:00,36.2,34.4,30.20,SE,144,0.0,1.0,93,0.00,,,0.00,WUHU216DAVISVP2,2013-11-26 14:37:00,
2013-11-26 06:38:00,36.2,34.3,30.20,SSE,158,0.0,1.0,93,0.00,,,0.00,WUHU216DAVISVP2,2013-11-26 14:38:00,
2013-11-26 06:39:00,36.2,34.3,30.20,SE,140,0.0,1.0,93,0.00,,,0.00,WUHU216DAVISVP2,2013-11-26 14:39:00,
2013-11-26 06:40:00,36.3,34.4,30.21,SE,140,0.0,1.0,93,0.00,,,0.00,WUHU216DAVISVP2,2013-11-26 14:40:00,
2013-11-26 06:42:00,36.3,34.5,30.21,South,181,0.0,1.0,93,0.00,,,0.00,WUHU216DAVISVP2,2013-11-26 14:42:00,
2013-11-26 06:43:00,36.3,34.4,30.21,South,180,0.0,1.0,93,0.00,,,0.00,WUHU216DAVISVP2,2013-11-26 14:43:00,
2013-11-26 06:44:00,36.3,34.4,30.21,SSW,210,0.0,1.0,93,0.00,,,0.00,WUHU216DAVISVP2,2013-11-26 14:44:00,
2013-11-26 06:45:00,36.3,34.4,30.21,SW,236,0.0,1.0,93,0.00,,,0.00,WUHU216DAVISVP2,2013-11-26 14:45:00,
2013-11-26 06:46:00,36.4,34.5,30.21,SW,218,0.0,1.0,93,0.00,,,0.00,WUHU216DAVISVP2,2013-11-26 14:46:00,
2013-11-26 06:47:00,36.4,34.5,30.20,SW,218,0.0,1.0,93,0.00,,,0.00,WUHU216DAVISVP2,2013-11-26 14:47:00,
2013-11-26 06:48:00,36.5,34.6,30.20,SW,218,0.0,0.0,93,0.00,,,0.00,WUHU216DAVISVP2,2013-11-26 14:48:00,
2013-11-26 06:49:00,36.5,34.6,30.20,SSW,193,0.0,0.0,93,0.00,,,0.00,WUHU216DAVISVP2,2013-11-26 14:49:00,
2013-11-26 06:50:00,36.5,34.6,30.20,SSW,211,0.0,0.0,93,0.00,,,0.00,WUHU216DAVISVP2,2013-11-26 14:50:00,
2013-11-26 06:52:00,36.5,34.6,30.20,SSW,212,0.0,0.0,93,0.00,,,0.00,WUHU216DAVISVP2,2013-11-26 14:52:00,
2013-11-26 06:53:00,36.5,34.7,30.20,South,179,0.0,0.0,93,0.00,,,0.00,WUHU216DAVISVP2,2013-11-26 14:53:00,
2013-11-26 06:54:00,36.6,34.8,30.20,South,179,0.0,0.0,93,0.00,,,0.00,WUHU216DAVISVP2,2013-11-26 14:54:00,
2013-11-26 06:55:00,36.6,34.8,30.20,South,179,0.0,0.0,93,0.00,,,0.00,WUHU216DAVISVP2,2013-11-26 14:55:00,
2013-11-26 06:57:00,36.6,34.8,30.20,South,170,0.0,0.0,93,0.00,,,0.00,WUHU216DAVISVP2,2013-11-26 14:57:00,
2013-11-26 06:58:00,36.7,34.8,30.20,South,170,0.0,0.0,93,0.00,,,0.00,WUHU216DAVISVP2,2013-11-26 14:58:00,
2013-11-26 06:59:00,36.8,34.9,30.20,SW,221,0.0,1.0,93,0.00,,,0.00,WUHU216DAVISVP2,2013-11-26 14:59:00,
2013-11-26 07:00:00,36.8,35.2,30.20,SSW,200,0.0,1.0,94,0.00,,,0.00,WUHU216DAVISVP2,2013-11-26 15:00:00,
2013-11-26 07:02:00,36.9,35.0,30.20,South,170,0.0,1.0,93,0.00,,,0.00,WUHU216DAVISVP2,2013-11-26 15:02:00,
2013-11-26 07:04:00,37.1,35.2,30.20,SE,146,0.0,1.0,93,0.00,,,0.00,WUHU216DAVISVP2,2013-11-26 15:04:00,
2013-11-26 07:05:00,37.2,35.3,30.20,SSE,159,0.0,1.0,93,0.00,,,0.00,WUHU216DAVISVP2,2013-11-26 15:05:00,
2013-11-26 07:07:00,37.4,35.5,30.20,SSW,207,0.0,1.0,93,0.00,,,0.00,WUHU216DAVISVP2,2013-11-26 15:07:00,
2013-11-26 07:09:00,37.5,35.3,30.20,SW,221,0.0,1.0,92,0.00,,,0.00,WUHU216DAVISVP2,2013-11-26 15:09:00,
2013-11-26 07:10:00,37.5,35.3,30.20,SSW,212,0.0,1.0,92,0.00,,,0.00,WUHU216DAVISVP2,2013-11-26 15:10:00,
2013-11-26 07:11:00,37.5,35.3,30.20,SSW,212,0.0,1.0,92,0.00,,,0.00,WUHU216DAVISVP2,2013-11-26 15:11:00,
2013-11-26 07:13:00,37.6,35.4,30.20,West,269,0.0,1.0,92,0.00,,,0.00,WUHU216DAVISVP2,2013-11-26 15:13:00,
2013-11-26 07:14:00,37.6,35.4,30.20,West,269,0.0,1.0,92,0.00,,,0.00,WUHU216DAVISVP2,2013-11-26 15:14:00,
2013-11-26 07:15:00,37.6,35.4,30.20,West,269,0.0,1.0,92,0.00,,,0.00,WUHU216DAVISVP2,2013-11-26 15:15:00,
2013-11-26 07:16:00,37.6,35.4,30.20,SSW,200,0.0,1.0,92,0.00,,,0.00,WUHU216DAVISVP2,2013-11-26 15:16:00,
2013-11-26 07:18:00,37.6,35.2,30.20,SSW,200,0.0,1.0,91,0.00,,,0.00,WUHU216DAVISVP2,2013-11-26 15:18:00,
2013-11-26 07:19:00,37.7,35.3,30.20,South,188,0.0,1.0,91,0.00,,,0.00,WUHU216DAVISVP2,2013-11-26 15:19:00,
2013-11-26 07:20:00,37.7,35.6,30.20,SW,216,0.0,1.0,92,0.00,,,0.00,WUHU216DAVISVP2,2013-11-26 15:20:00,
2013-11-26 07:21:00,37.7,35.5,30.20,SW,216,0.0,1.0,92,0.00,,,0.00,WUHU216DAVISVP2,2013-11-26 15:21:00,
2013-11-26 07:22:00,37.7,35.3,30.20,SSW,207,0.0,1.0,91,0.00,,,0.00,WUHU216DAVISVP2,2013-11-26 15:22:00,
2013-11-26 07:23:00,37.7,35.3,30.20,SSW,207,0.0,1.0,91,0.00,,,0.00,WUHU216DAVISVP2,2013-11-26 15:23:00,
2013-11-26 07:24:00,37.7,35.3,30.20,SSW,207,0.0,1.0,91,0.00,,,0.00,WUHU216DAVISVP2,2013-11-26 15:24:00,
2013-11-26 07:25:00,37.7,35.3,30.20,SSW,207,0.0,1.0,91,0.00,,,0.00,WUHU216DAVISVP2,2013-11-26 15:25:00,
2013-11-26 07:26:00,37.6,35.2,30.21,SSW,207,0.0,1.0,91,0.00,,,0.00,WUHU216DAVISVP2,2013-11-26 15:26:00,
2013-11-26 07:27:00,37.5,35.1,30.21,SSW,207,0.0,1.0,91,0.00,,,0.00,WUHU216DAVISVP2,2013-11-26 15:27:00,
2013-11-26 07:29:00,37.3,34.9,30.21,SSW,207,0.0,1.0,91,0.00,,,0.00,WUHU216DAVISVP2,2013-11-26 15:29:00,
2013-11-26 07:30:00,37.3,34.9,30.21,SSW,207,0.0,1.0,91,0.00,,,0.00,WUHU216DAVISVP2,2013-11-26 15:30:00,
2013-11-26 07:31:00,37.2,34.8,30.21,SSW,207,0.0,1.0,91,0.00,,,0.00,WUHU216DAVISVP2,2013-11-26 15:31:00,
2013-11-26 07:32:00,37.2,34.8,30.21,SSW,207,0.0,1.0,91,0.00,,,0.00,WUHU216DAVISVP2,2013-11-26 15:32:00,
2013-11-26 07:34:00,37.1,34.7,30.21,ESE,121,0.0,1.0,91,0.00,,,0.00,WUHU216DAVISVP2,2013-11-26 15:34:00,
2013-11-26 07:36:00,37.1,34.9,30.21,ESE,120,1.0,1.0,92,0.00,,,0.00,WUHU216DAVISVP2,2013-11-26 15:36:00,
2013-11-26 07:37:00,37.1,34.9,30.21,ESE,110,0.0,1.0,92,0.00,,,0.00,WUHU216DAVISVP2,2013-11-26 15:37:00,
2013-11-26 07:39:00,37.0,34.8,30.20,ESE,111,0.0,1.0,92,0.00,,,0.00,WUHU216DAVISVP2,2013-11-26 15:39:00,
2013-11-26 07:40:00,37.0,34.8,30.20,ESE,111,0.0,1.0,92,0.00,,,0.00,WUHU216DAVISVP2,2013-11-26 15:40:00,
2013-11-26 07:41:00,36.9,34.7,30.21,ESE,111,0.0,1.0,92,0.00,,,0.00,WUHU216DAVISVP2,2013-11-26 15:41:00,
2013-11-26 07:42:00,36.9,34.7,30.21,ESE,111,0.0,1.0,92,0.00,,,0.00,WUHU216DAVISVP2,2013-11-26 15:42:00,
2013-11-26 07:45:00,36.9,34.7,30.21,ESE,111,0.0,1.0,92,0.00,,,0.00,WUHU216DAVISVP2,2013-11-26 15:45:00,
2013-11-26 07:46:00,36.8,34.6,30.21,ESE,111,0.0,1.0,92,0.00,,,0.00,WUHU216DAVISVP2,2013-11-26 15:46:00,
2013-11-26 07:47:00,36.8,34.6,30.21,ESE,111,0.0,1.0,92,0.00,,,0.00,WUHU216DAVISVP2,2013-11-26 15:47:00,
2013-11-26 07:50:00,36.7,34.5,30.21,ESE,111,0.0,1.0,92,0.00,,,0.00,WUHU216DAVISVP2,2013-11-26 15:50:00,
2013-11-26 07:51:00,36.7,34.5,30.21,ESE,111,0.0,1.0,92,0.00,,,0.00,WUHU216DAVISVP2,2013-11-26 15:51:00,
2013-11-26 07:52:00,36.6,34.5,30.21,ESE,111,0.0,1.0,92,0.00,,,0.00,WUHU216DAVISVP2,2013-11-26 15:52:00,
2013-11-26 07:55:00,36.7,34.9,30.20,ESE,111,0.0,0.0,93,0.00,,,0.00,WUHU216DAVISVP2,2013-11-26 15:55:00,
2013-11-26 07:56:00,36.7,34.9,30.20,ESE,111,0.0,0.0,93,0.00,,,0.00,WUHU216DAVISVP2,2013-11-26 15:56:00,
2013-11-26 07:57:00,36.7,34.9,30.20,ESE,111,0.0,0.0,93,0.00,,,0.00,WUHU216DAVISVP2,2013-11-26 15:57:00,
2013-11-26 07:58:00,36.7,34.9,30.20,ESE,111,0.0,0.0,93,0.00,,,0.00,WUHU216DAVISVP2,2013-11-26 15:58:00,
2013-11-26 08:00:00,36.6,34.8,30.20,ESE,111,0.0,0.0,93,0.00,,,0.00,WUHU216DAVISVP2,2013-11-26 16:00:00,
2013-11-26 08:01:00,36.6,34.8,30.20,ESE,111,0.0,0.0,93,0.00,,,0.00,WUHU216DAVISVP2,2013-11-26 16:01:00,
2013-11-26 08:02:00,36.6,34.8,30.20,ESE,111,0.0,0.0,93,0.00,,,0.00,WUHU216DAVISVP2,2013-11-26 16:02:00,
2013-11-26 08:03:00,36.6,34.8,30.20,ESE,111,0.0,0.0,93,0.00,,,0.00,WUHU216DAVISVP2,2013-11-26 16:03:00,
2013-11-26 08:05:00,36.6,34.7,30.20,ESE,111,0.0,0.0,93,0.00,,,0.00,WUHU216DAVISVP2,2013-11-26 16:05:00,
2013-11-26 08:06:00,36.6,34.7,30.20,ESE,111,0.0,0.0,93,0.00,,,0.00,WUHU216DAVISVP2,2013-11-26 16:06:00,
2013-11-26 08:08:00,36.6,34.7,30.20,ESE,111,0.0,0.0,93,0.00,,,0.00,WUHU216DAVISVP2,2013-11-26 16:08:00,
2013-11-26 08:09:00,36.6,34.7,30.20,ESE,111,0.0,0.0,93,0.00,,,0.00,WUHU216DAVISVP2,2013-11-26 16:09:00,
2013-11-26 08:11:00,36.6,34.7,30.20,ESE,111,0.0,0.0,93,0.00,,,0.00,WUHU216DAVISVP2,2013-11-26 16:11:00,
2013-11-26 08:13:00,36.6,34.7,30.20,ESE,111,0.0,0.0,93,0.00,,,0.00,WUHU216DAVISVP2,2013-11-26 16:13:00,
2013-11-26 08:14:00,36.6,34.7,30.20,ESE,111,0.0,0.0,93,0.00,,,0.00,WUHU216DAVISVP2,2013-11-26 16:14:00,
2013-11-26 08:16:00,36.6,34.7,30.20,ESE,111,0.0,0.0,93,0.00,,,0.00,WUHU216DAVISVP2,2013-11-26 16:16:00,
2013-11-26 08:18:00,36.5,34.6,30.20,ESE,111,0.0,0.0,93,0.00,,,0.00,WUHU216DAVISVP2,2013-11-26 16:18:00,
2013-11-26 08:20:00,36.5,34.6,30.20,ESE,111,0.0,0.0,93,0.00,,,0.00,WUHU216DAVISVP2,2013-11-26 16:20:00,
2013-11-26 08:21:00,36.5,34.6,30.20,ESE,111,0.0,0.0,93,0.00,,,0.00,WUHU216DAVISVP2,2013-11-26 16:21:00,
2013-11-26 08:23:00,36.5,34.6,30.20,ESE,111,0.0,0.0,93,0.00,,,0.00,WUHU216DAVISVP2,2013-11-26 16:23:00,
2013-11-26 08:24:00,36.6,34.7,30.20,ESE,111,0.0,0.0,93,0.00,,,0.00,WUHU216DAVISVP2,2013-11-26 16:24:00,
2013-11-26 08:25:00,36.6,35.0,30.20,ESE,111,0.0,1.0,94,0.00,,,0.00,WUHU216DAVISVP2,2013-11-26 16:25:00,
2013-11-26 08:27:00,36.8,35.2,30.20,ESE,117,0.0,1.0,94,0.00,,,0.00,WUHU216DAVISVP2,2013-11-26 16:27:00,
2013-11-26 08:28:00,36.9,35.3,30.20,ESE,117,0.0,1.0,94,0.00,,,0.00,WUHU216DAVISVP2,2013-11-26 16:28:00,
2013-11-26 08:30:00,37.0,35.1,30.20,ESE,117,0.0,1.0,93,0.00,,,0.00,WUHU216DAVISVP2,2013-11-26 16:30:00,
2013-11-26 08:32:00,37.2,35.3,30.20,ESE,117,0.0,1.0,93,0.00,,,0.00,WUHU216DAVISVP2,2013-11-26 16:32:00,
2013-11-26 08:33:00,37.3,35.4,30.20,ESE,117,0.0,1.0,93,0.00,,,0.00,WUHU216DAVISVP2,2013-11-26 16:33:00,
2013-11-26 08:35:00,37.3,35.4,30.20,ESE,115,0.0,1.0,93,0.00,,,0.00,WUHU216DAVISVP2,2013-11-26 16:35:00,
2013-11-26 08:36:00,37.4,35.5,30.20,ESE,115,0.0,1.0,93,0.00,,,0.00,WUHU216DAVISVP2,2013-11-26 16:36:00,
2013-11-26 08:37:00,37.5,35.6,30.20,ESE,113,0.0,1.0,93,0.00,,,0.00,WUHU216DAVISVP2,2013-11-26 16:37:00,
2013-11-26 08:38:00,37.5,35.6,30.20,ESE,114,0.0,1.0,93,0.00,,,0.00,WUHU216DAVISVP2,2013-11-26 16:38:00,
2013-11-26 08:40:00,37.6,35.4,30.20,ESE,114,0.0,1.0,92,0.00,,,0.00,WUHU216DAVISVP2,2013-11-26 16:40:00,
2013-11-26 08:41:00,37.7,35.5,30.20,ESE,114,0.0,1.0,92,0.00,,,0.00,WUHU216DAVISVP2,2013-11-26 16:41:00,
2013-11-26 08:42:00,37.7,35.5,30.20,ESE,114,0.0,1.0,92,0.00,,,0.00,WUHU216DAVISVP2,2013-11-26 16:42:00,
2013-11-26 08:43:00,37.7,35.5,30.20,ESE,122,1.0,1.0,92,0.00,,,0.00,WUHU216DAVISVP2,2013-11-26 16:43:00,
2013-11-26 08:44:00,37.8,35.6,30.20,ESE,112,0.0,1.0,92,0.00,,,0.00,WUHU216DAVISVP2,2013-11-26 16:44:00,
2013-11-26 08:46:00,37.9,35.7,30.20,ESE,118,0.0,1.0,92,0.00,,,0.00,WUHU216DAVISVP2,2013-11-26 16:46:00,
2013-11-26 08:47:00,38.0,35.8,30.20,ESE,119,0.0,1.0,92,0.00,,,0.00,WUHU216DAVISVP2,2013-11-26 16:47:00,
2013-11-26 08:48:00,38.1,35.9,30.20,ESE,119,0.0,1.0,92,0.00,,,0.00,WUHU216DAVISVP2,2013-11-26 16:48:00,
2013-11-26 08:49:00,38.3,36.1,30.19,ESE,120,0.0,1.0,92,0.00,,,0.00,WUHU216DAVISVP2,2013-11-26 16:49:00,
2013-11-26 08:51:00,38.4,36.0,30.19,ESE,119,0.0,1.0,91,0.00,,,0.00,WUHU216DAVISVP2,2013-11-26 16:51:00,
2013-11-26 08:52:00,38.5,36.1,30.19,SE,129,0.0,1.0,91,0.00,,,0.00,WUHU216DAVISVP2,2013-11-26 16:52:00,
2013-11-26 08:53:00,38.6,36.2,30.19,SE,127,0.0,1.0,91,0.00,,,0.00,WUHU216DAVISVP2,2013-11-26 16:53:00,
2013-11-26 08:54:00,38.7,36.3,30.19,SSE,150,0.0,1.0,91,0.00,,,0.00,WUHU216DAVISVP2,2013-11-26 16:54:00,
2013-11-26 08:55:00,38.8,36.4,30.19,SE,138,0.0,2.0,91,0.00,,,0.00,WUHU216DAVISVP2,2013-11-26 16:55:00,
2013-11-26 08:56:00,38.9,36.5,30.19,ESE,110,0.0,2.0,91,0.00,,,0.00,WUHU216DAVISVP2,2013-11-26 16:56:00,
2013-11-26 08:57:00,39.1,36.4,30.19,SE,141,0.0,2.0,90,0.00,,,0.00,WUHU216DAVISVP2,2013-11-26 16:57:00,
2013-11-26 08:58:00,39.1,36.4,30.19,SE,129,0.0,2.0,90,0.00,,,0.00,WUHU216DAVISVP2,2013-11-26 16:58:00,
2013-11-26 08:59:00,39.3,36.6,30.19,ESE,108,0.0,2.0,90,0.00,,,0.00,WUHU216DAVISVP2,2013-11-26 16:59:00,
2013-11-26 09:00:00,39.4,36.7,30.19,SE,125,0.0,2.0,90,0.00,,,0.00,WUHU216DAVISVP2,2013-11-26 17:00:00,
2013-11-26 09:01:00,39.5,36.8,30.19,SE,125,0.0,2.0,90,0.00,,,0.00,WUHU216DAVISVP2,2013-11-26 17:01:00,
2013-11-26 09:02:00,39.5,36.5,30.19,SE,132,0.0,2.0,89,0.00,,,0.00,WUHU216DAVISVP2,2013-11-26 17:02:00,
2013-11-26 09:03:00,39.6,36.6,30.19,South,169,0.0,2.0,89,0.00,,,0.00,WUHU216DAVISVP2,2013-11-26 17:03:00,
2013-11-26 09:05:00,39.8,36.8,30.19,SE,139,0.0,2.0,89,0.00,,,0.00,WUHU216DAVISVP2,2013-11-26 17:05:00,
2013-11-26 09:06:00,39.8,36.8,30.19,ESE,119,0.0,2.0,89,0.00,,,0.00,WUHU216DAVISVP2,2013-11-26 17:06:00,
2013-11-26 09:07:00,39.9,36.9,30.19,SSW,209,0.0,2.0,89,0.00,,,0.00,WUHU216DAVISVP2,2013-11-26 17:07:00,
2013-11-26 09:08:00,40.1,36.8,30.19,SSE,147,0.0,2.0,88,0.00,,,0.00,WUHU216DAVISVP2,2013-11-26 17:08:00,
2013-11-26 09:11:00,40.4,37.1,30.19,ESE,114,0.0,2.0,88,0.00,,,0.00,WUHU216DAVISVP2,2013-11-26 17:11:00,
2013-11-26 09:12:00,40.6,37.3,30.19,ESE,115,0.0,2.0,88,0.00,,,0.00,WUHU216DAVISVP2,2013-11-26 17:12:00,
2013-11-26 09:13:00,40.7,37.1,30.19,ESE,115,0.0,2.0,87,0.00,,,0.00,WUHU216DAVISVP2,2013-11-26 17:13:00,
2013-11-26 09:14:00,40.9,37.3,30.19,South,174,0.0,1.0,87,0.00,,,0.00,WUHU216DAVISVP2,2013-11-26 17:14:00,
2013-11-26 09:16:00,41.1,37.5,30.19,SSW,212,1.0,2.0,87,0.00,,,0.00,WUHU216DAVISVP2,2013-11-26 17:16:00,
2013-11-26 09:17:00,41.4,37.5,30.19,SE,141,0.0,2.0,86,0.00,,,0.00,WUHU216DAVISVP2,2013-11-26 17:17:00,
2013-11-26 09:18:00,41.5,37.6,30.19,SSE,150,0.0,2.0,86,0.00,,,0.00,WUHU216DAVISVP2,2013-11-26 17:18:00,
2013-11-26 09:19:00,41.5,37.6,30.19,SSE,150,0.0,2.0,86,0.00,,,0.00,WUHU216DAVISVP2,2013-11-26 17:19:00,
2013-11-26 09:20:00,41.7,37.8,30.19,SSE,161,0.0,2.0,86,0.00,,,0.00,WUHU216DAVISVP2,2013-11-26 17:20:00,
2013-11-26 09:21:00,41.9,37.7,30.19,SE,127,1.0,2.0,85,0.00,,,0.00,WUHU216DAVISVP2,2013-11-26 17:21:00,
2013-11-26 09:22:00,42.1,37.9,30.19,ESE,106,0.0,2.0,85,0.00,,,0.00,WUHU216DAVISVP2,2013-11-26 17:22:00,
2013-11-26 09:23:00,42.2,37.7,30.19,SE,141,0.0,2.0,84,0.00,,,0.00,WUHU216DAVISVP2,2013-11-26 17:23:00,
2013-11-26 09:24:00,42.2,37.7,30.19,ESE,109,0.0,2.0,84,0.00,,,0.00,WUHU216DAVISVP2,2013-11-26 17:24:00,
2013-11-26 09:25:00,42.3,37.8,30.19,East,90,0.0,2.0,84,0.00,,,0.00,WUHU216DAVISVP2,2013-11-26 17:25:00,
2013-11-26 09:26:00,42.5,38.0,30.19,SE,124,0.0,2.0,84,0.00,,,0.00,WUHU216DAVISVP2,2013-11-26 17:26:00,
2013-11-26 09:28:00,42.6,37.8,30.19,SE,139,1.0,2.0,83,0.00,,,0.00,WUHU216DAVISVP2,2013-11-26 17:28:00,
2013-11-26 09:29:00,42.6,37.8,30.19,ESE,113,0.0,2.0,83,0.00,,,0.00,WUHU216DAVISVP2,2013-11-26 17:29:00,
2013-11-26 09:30:00,42.7,37.9,30.19,ESE,112,0.0,2.0,83,0.00,,,0.00,WUHU216DAVISVP2,2013-11-26 17:30:00,
2013-11-26 09:31:00,42.8,38.0,30.19,ESE,112,1.0,2.0,83,0.00,,,0.00,WUHU216DAVISVP2,2013-11-26 17:31:00,
2013-11-26 09:33:00,42.9,37.8,30.19,East,98,0.0,2.0,82,0.00,,,0.00,WUHU216DAVISVP2,2013-11-26 17:33:00,
2013-11-26 09:34:00,42.9,38.1,30.19,SSW,209,0.0,2.0,83,0.00,,,0.00,WUHU216DAVISVP2,2013-11-26 17:34:00,
2013-11-26 09:35:00,43.0,37.9,30.19,SE,131,0.0,2.0,82,0.00,,,0.00,WUHU216DAVISVP2,2013-11-26 17:35:00,
2013-11-26 09:36:00,43.0,37.9,30.19,SSE,157,0.0,2.0,82,0.00,,,0.00,WUHU216DAVISVP2,2013-11-26 17:36:00,
2013-11-26 09:37:00,43.0,37.9,30.19,SE,142,0.0,2.0,82,0.00,,,0.00,WUHU216DAVISVP2,2013-11-26 17:37:00,
2013-11-26 09:38:00,43.1,38.0,30.19,ESE,121,0.0,2.0,82,0.00,,,0.00,WUHU216DAVISVP2,2013-11-26 17:38:00,
2013-11-26 09:39:00,43.1,38.0,30.19,SSW,211,0.0,2.0,82,0.00,,,0.00,WUHU216DAVISVP2,2013-11-26 17:39:00,
2013-11-26 09:40:00,43.1,38.0,30.19,SE,125,0.0,2.0,82,0.00,,,0.00,WUHU216DAVISVP2,2013-11-26 17:40:00,
2013-11-26 09:41:00,43.1,38.0,30.19,ESE,113,0.0,1.0,82,0.00,,,0.00,WUHU216DAVISVP2,2013-11-26 17:41:00,
2013-11-26 09:42:00,43.2,38.1,30.19,ESE,113,0.0,1.0,82,0.00,,,0.00,WUHU216DAVISVP2,2013-11-26 17:42:00,
2013-11-26 09:43:00,43.2,38.1,30.19,SE,124,0.0,1.0,82,0.00,,,0.00,WUHU216DAVISVP2,2013-11-26 17:43:00,
2013-11-26 09:45:00,43.3,38.2,30.19,SE,124,0.0,1.0,82,0.00,,,0.00,WUHU216DAVISVP2,2013-11-26 17:45:00,
2013-11-26 09:46:00,43.4,38.3,30.19,SE,128,0.0,1.0,82,0.00,,,0.00,WUHU216DAVISVP2,2013-11-26 17:46:00,
2013-11-26 09:47:00,43.4,38.3,30.19,South,179,0.0,1.0,82,0.00,,,0.00,WUHU216DAVISVP2,2013-11-26 17:47:00,
2013-11-26 09:48:00,43.5,38.4,30.19,SE,124,1.0,1.0,82,0.00,,,0.00,WUHU216DAVISVP2,2013-11-26 17:48:00,
2013-11-26 09:49:00,43.5,38.4,30.19,SE,124,0.0,1.0,82,0.00,,,0.00,WUHU216DAVISVP2,2013-11-26 17:49:00,
2013-11-26 09:50:00,43.6,38.5,30.20,SE,128,0.0,1.0,82,0.00,,,0.00,WUHU216DAVISVP2,2013-11-26 17:50:00,
2013-11-26 09:52:00,43.7,38.6,30.20,SE,131,0.0,1.0,82,0.00,,,0.00,WUHU216DAVISVP2,2013-11-26 17:52:00,
2013-11-26 09:53:00,43.8,38.7,30.20,East,101,0.0,1.0,82,0.00,,,0.00,WUHU216DAVISVP2,2013-11-26 17:53:00,
2013-11-26 09:54:00,43.9,38.5,30.20,East,101,0.0,1.0,81,0.00,,,0.00,WUHU216DAVISVP2,2013-11-26 17:54:00,
2013-11-26 09:55:00,43.9,38.5,30.20,East,97,0.0,1.0,81,0.00,,,0.00,WUHU216DAVISVP2,2013-11-26 17:55:00,
2013-11-26 09:57:00,44.0,38.6,30.20,ESE,115,0.0,2.0,81,0.00,,,0.00,WUHU216DAVISVP2,2013-11-26 17:57:00,
2013-11-26 09:59:00,44.1,38.3,30.20,SE,134,0.0,2.0,80,0.00,,,0.00,WUHU216DAVISVP2,2013-11-26 17:59:00,
2013-11-26 10:00:00,44.2,38.4,30.19,ESE,118,1.0,2.0,80,0.00,,,0.00,WUHU216DAVISVP2,2013-11-26 18:00:00,
2013-11-26 10:01:00,44.3,38.5,30.19,ESE,115,0.0,2.0,80,0.00,,,0.00,WUHU216DAVISVP2,2013-11-26 18:01:00,
2013-11-26 10:02:00,44.4,38.6,30.20,SE,146,0.0,2.0,80,0.00,,,0.00,WUHU216DAVISVP2,2013-11-26 18:02:00,
2013-11-26 10:04:00,44.5,38.7,30.20,ESE,113,0.0,2.0,80,0.00,,,0.00,WUHU216DAVISVP2,2013-11-26 18:04:00,
2013-11-26 10:06:00,44.8,39.0,30.19,ESE,119,1.0,2.0,80,0.00,,,0.00,WUHU216DAVISVP2,2013-11-26 18:06:00,
2013-11-26 10:07:00,45.0,39.2,30.19,ESE,103,0.0,2.0,80,0.00,,,0.00,WUHU216DAVISVP2,2013-11-26 18:07:00,
2013-11-26 10:08:00,45.2,39.4,30.19,ESE,116,0.0,2.0,80,0.00,,,0.00,WUHU216DAVISVP2,2013-11-26 18:08:00,
2013-11-26 10:09:00,45.4,39.3,30.19,SSE,166,1.0,2.0,79,0.00,,,0.00,WUHU216DAVISVP2,2013-11-26 18:09:00,
2013-11-26 10:11:00,45.6,39.2,30.19,SE,130,0.0,2.0,78,0.00,,,0.00,WUHU216DAVISVP2,2013-11-26 18:11:00,
2013-11-26 10:12:00,45.7,39.3,30.19,ESE,123,0.0,2.0,78,0.00,,,0.00,WUHU216DAVISVP2,2013-11-26 18:12:00,
2013-11-26 10:13:00,45.8,39.4,30.19,SE,132,0.0,2.0,78,0.00,,,0.00,WUHU216DAVISVP2,2013-11-26 18:13:00,
2013-11-26 10:14:00,45.9,39.5,30.19,SSE,159,0.0,2.0,78,0.00,,,0.00,WUHU216DAVISVP2,2013-11-26 18:14:00,
2013-11-26 10:15:00,45.9,39.1,30.19,SE,140,0.0,2.0,77,0.00,,,0.00,WUHU216DAVISVP2,2013-11-26 18:15:00,
2013-11-26 10:16:00,46.0,39.2,30.19,SSE,149,0.0,1.0,77,0.00,,,0.00,WUHU216DAVISVP2,2013-11-26 18:16:00,
2013-11-26 10:17:00,46.0,39.2,30.19,SE,126,0.0,1.0,77,0.00,,,0.00,WUHU216DAVISVP2,2013-11-26 18:17:00,
2013-11-26 10:18:00,46.0,39.2,30.19,SSE,164,0.0,1.0,77,0.00,,,0.00,WUHU216DAVISVP2,2013-11-26 18:18:00,
2013-11-26 10:19:00,46.0,39.2,30.19,SSE,162,0.0,1.0,77,0.00,,,0.00,WUHU216DAVISVP2,2013-11-26 18:19:00,
2013-11-26 10:20:00,46.0,39.2,30.19,SE,125,0.0,1.0,77,0.00,,,0.00,WUHU216DAVISVP2,2013-11-26 18:20:00,
2013-11-26 10:21:00,46.0,39.2,30.19,SSE,147,0.0,1.0,77,0.00,,,0.00,WUHU216DAVISVP2,2013-11-26 18:21:00,
2013-11-26 10:22:00,46.0,39.2,30.19,ESE,114,0.0,1.0,77,0.00,,,0.00,WUHU216DAVISVP2,2013-11-26 18:22:00,
2013-11-26 10:23:00,46.0,39.2,30.19,SSE,161,0.0,1.0,77,0.00,,,0.00,WUHU216DAVISVP2,2013-11-26 18:23:00,
2013-11-26 10:24:00,46.0,39.2,30.19,ESE,113,0.0,1.0,77,0.00,,,0.00,WUHU216DAVISVP2,2013-11-26 18:24:00,
2013-11-26 10:25:00,46.0,39.2,30.19,ESE,113,0.0,1.0,77,0.00,,,0.00,WUHU216DAVISVP2,2013-11-26 18:25:00,
2013-11-26 10:27:00,46.1,39.3,30.19,SE,124,0.0,1.0,77,0.00,,,0.00,WUHU216DAVISVP2,2013-11-26 18:27:00,
2013-11-26 10:28:00,46.1,39.3,30.19,ESE,110,0.0,1.0,77,0.00,,,0.00,WUHU216DAVISVP2,2013-11-26 18:28:00,
2013-11-26 10:29:00,46.1,39.3,30.19,ESE,113,0.0,1.0,77,0.00,,,0.00,WUHU216DAVISVP2,2013-11-26 18:29:00,
2013-11-26 10:30:00,46.2,39.4,30.19,SE,124,0.0,1.0,77,0.00,,,0.00,WUHU216DAVISVP2,2013-11-26 18:30:00,
2013-11-26 10:32:00,46.3,39.9,30.19,SE,124,0.0,1.0,78,0.00,,,0.00,WUHU216DAVISVP2,2013-11-26 18:32:00,
2013-11-26 10:33:00,46.4,39.6,30.19,SE,131,0.0,1.0,77,0.00,,,0.00,WUHU216DAVISVP2,2013-11-26 18:33:00,
2013-11-26 10:34:00,46.5,39.7,30.19,SE,139,0.0,1.0,77,0.00,,,0.00,WUHU216DAVISVP2,2013-11-26 18:34:00,
2013-11-26 10:35:00,46.5,39.7,30.19,SE,136,0.0,1.0,77,0.00,,,0.00,WUHU216DAVISVP2,2013-11-26 18:35:00,
2013-11-26 10:37:00,46.7,39.9,30.19,SE,143,0.0,1.0,77,0.00,,,0.00,WUHU216DAVISVP2,2013-11-26 18:37:00,
2013-11-26 10:39:00,47.0,39.9,30.19,ESE,107,0.0,1.0,76,0.00,,,0.00,WUHU216DAVISVP2,2013-11-26 18:39:00,
2013-11-26 10:40:00,47.1,40.0,30.19,SE,129,0.0,1.0,76,0.00,,,0.00,WUHU216DAVISVP2,2013-11-26 18:40:00,
2013-11-26 10:41:00,47.2,40.1,30.19,East,97,0.0,1.0,76,0.00,,,0.00,WUHU216DAVISVP2,2013-11-26 18:41:00,
2013-11-26 10:42:00,47.3,39.8,30.19,East,101,0.0,1.0,75,0.00,,,0.00,WUHU216DAVISVP2,2013-11-26 18:42:00,
2013-11-26 10:44:00,47.6,39.8,30.19,SE,128,1.0,1.0,74,0.00,,,0.00,WUHU216DAVISVP2,2013-11-26 18:44:00,
2013-11-26 10:45:00,47.6,39.8,30.19,ESE,117,0.0,1.0,74,0.00,,,0.00,WUHU216DAVISVP2,2013-11-26 18:45:00,
2013-11-26 10:46:00,47.7,39.9,30.18,SE,134,1.0,1.0,74,0.00,,,0.00,WUHU216DAVISVP2,2013-11-26 18:46:00,
2013-11-26 10:47:00,47.7,39.9,30.19,East,99,0.0,1.0,74,0.00,,,0.00,WUHU216DAVISVP2,2013-11-26 18:47:00,
2013-11-26 10:50:00,48.0,40.2,30.18,ESE,103,0.0,1.0,74,0.00,,,0.00,WUHU216DAVISVP2,2013-11-26 18:50:00,
2013-11-26 10:51:00,48.1,40.3,30.18,ESE,123,0.0,1.0,74,0.00,,,0.00,WUHU216DAVISVP2,2013-11-26 18:51:00,
2013-11-26 10:52:00,48.1,40.3,30.18,SE,126,0.0,1.0,74,0.00,,,0.00,WUHU216DAVISVP2,2013-11-26 18:52:00,
2013-11-26 10:53:00,48.2,40.4,30.18,ESE,103,0.0,1.0,74,0.00,,,0.00,WUHU216DAVISVP2,2013-11-26 18:53:00,
2013-11-26 10:55:00,48.4,40.5,30.18,ESE,120,0.0,1.0,74,0.00,,,0.00,WUHU216DAVISVP2,2013-11-26 18:55:00,
2013-11-26 10:56:00,48.4,40.5,30.18,ESE,120,0.0,1.0,74,0.00,,,0.00,WUHU216DAVISVP2,2013-11-26 18:56:00,
2013-11-26 10:57:00,48.5,40.6,30.18,SE,146,0.0,1.0,74,0.00,,,0.00,WUHU216DAVISVP2,2013-11-26 18:57:00,
2013-11-26 10:58:00,48.6,40.7,30.18,SE,139,0.0,1.0,74,0.00,,,0.00,WUHU216DAVISVP2,2013-11-26 18:58:00,
2013-11-26 11:00:00,48.9,40.6,30.18,SE,138,0.0,1.0,73,0.00,,,0.00,WUHU216DAVISVP2,2013-11-26 19:00:00,
2013-11-26 11:01:00,49.0,40.7,30.18,South,174,0.0,1.0,73,0.00,,,0.00,WUHU216DAVISVP2,2013-11-26 19:01:00,
2013-11-26 11:02:00,49.2,40.6,30.18,SSW,192,0.0,1.0,72,0.00,,,0.00,WUHU216DAVISVP2,2013-11-26 19:02:00,
2013-11-26 11:03:00,49.3,40.7,30.18,South,179,0.0,1.0,72,0.00,,,0.00,WUHU216DAVISVP2,2013-11-26 19:03:00,
2013-11-26 11:05:00,49.6,40.6,30.18,SE,127,0.0,2.0,71,0.00,,,0.00,WUHU216DAVISVP2,2013-11-26 19:05:00,
2013-11-26 11:06:00,49.6,40.6,30.18,ESE,105,0.0,2.0,71,0.00,,,0.00,WUHU216DAVISVP2,2013-11-26 19:06:00,
2013-11-26 11:07:00,49.8,40.4,30.18,NNE,28,0.0,2.0,70,0.00,,,0.00,WUHU216DAVISVP2,2013-11-26 19:07:00,
2013-11-26 11:08:00,49.8,40.4,30.18,SE,124,0.0,2.0,70,0.00,,,0.00,WUHU216DAVISVP2,2013-11-26 19:08:00,
2013-11-26 11:10:00,49.9,40.5,30.18,SSW,211,0.0,2.0,70,0.00,,,0.00,WUHU216DAVISVP2,2013-11-26 19:10:00,
2013-11-26 11:11:00,50.0,40.6,30.18,ENE,62,0.0,2.0,70,0.00,,,0.00,WUHU216DAVISVP2,2013-11-26 19:11:00,
2013-11-26 11:12:00,50.0,40.6,30.18,ENE,62,0.0,2.0,70,0.00,,,0.00,WUHU216DAVISVP2,2013-11-26 19:12:00,
2013-11-26 11:13:00,50.1,40.3,30.18,East,96,0.0,2.0,69,0.00,,,0.00,WUHU216DAVISVP2,2013-11-26 19:13:00,
2013-11-26 11:15:00,50.2,40.4,30.17,SE,136,0.0,2.0,69,0.00,,,0.00,WUHU216DAVISVP2,2013-11-26 19:15:00,
2013-11-26 11:16:00,50.2,40.4,30.18,SE,136,0.0,2.0,69,0.00,,,0.00,WUHU216DAVISVP2,2013-11-26 19:16:00,
2013-11-26 11:17:00,50.3,40.1,30.17,East,101,1.0,2.0,68,0.00,,,0.00,WUHU216DAVISVP2,2013-11-26 19:17:00,
2013-11-26 11:18:00,50.3,40.2,30.17,SE,134,0.0,2.0,68,0.00,,,0.00,WUHU216DAVISVP2,2013-11-26 19:18:00,
2013-11-26 11:20:00,50.3,40.2,30.17,ESE,121,1.0,2.0,68,0.00,,,0.00,WUHU216DAVISVP2,2013-11-26 19:20:00,
2013-11-26 11:21:00,50.3,40.2,30.17,East,101,0.0,2.0,68,0.00,,,0.00,WUHU216DAVISVP2,2013-11-26 19:21:00,
2013-11-26 11:22:00,50.3,39.9,30.17,East,98,1.0,2.0,67,0.00,,,0.00,WUHU216DAVISVP2,2013-11-26 19:22:00,
2013-11-26 11:23:00,50.3,40.2,30.17,South,187,0.0,2.0,68,0.00,,,0.00,WUHU216DAVISVP2,2013-11-26 19:23:00,
2013-11-26 11:24:00,50.3,40.2,30.17,SE,146,0.0,2.0,68,0.00,,,0.00,WUHU216DAVISVP2,2013-11-26 19:24:00,
2013-11-26 11:26:00,50.4,40.0,30.17,ESE,117,0.0,2.0,67,0.00,,,0.00,WUHU216DAVISVP2,2013-11-26 19:26:00,
2013-11-26 11:27:00,50.6,40.5,30.17,SSE,167,0.0,2.0,68,0.00,,,0.00,WUHU216DAVISVP2,2013-11-26 19:27:00,
2013-11-26 11:28:00,50.7,41.0,30.17,SE,124,0.0,2.0,69,0.00,,,0.00,WUHU216DAVISVP2,2013-11-26 19:28:00,
2013-11-26 11:30:00,51.2,40.7,30.17,NE,51,0.0,2.0,67,0.00,,,0.00,WUHU216DAVISVP2,2013-11-26 19:30:00,
2013-11-26 11:31:00,51.2,40.7,30.17,NE,44,0.0,2.0,67,0.00,,,0.00,WUHU216DAVISVP2,2013-11-26 19:31:00,
2013-11-26 11:32:00,51.5,41.0,30.17,ESE,113,0.0,3.0,67,0.00,,,0.00,WUHU216DAVISVP2,2013-11-26 19:32:00,
2013-11-26 11:33:00,51.6,40.7,30.17,ESE,114,0.0,3.0,66,0.00,,,0.00,WUHU216DAVISVP2,2013-11-26 19:33:00,
2013-11-26 11:34:00,51.7,40.8,30.17,ESE,115,0.0,3.0,66,0.00,,,0.00,WUHU216DAVISVP2,2013-11-26 19:34:00,
2013-11-26 11:36:00,52.1,41.2,30.17,SE,135,1.0,3.0,66,0.00,,,0.00,WUHU216DAVISVP2,2013-11-26 19:36:00,
2013-11-26 11:37:00,52.3,40.6,30.17,South,184,0.0,3.0,64,0.00,,,0.00,WUHU216DAVISVP2,2013-11-26 19:37:00,
2013-11-26 11:38:00,52.4,40.7,30.17,ESE,118,0.0,3.0,64,0.00,,,0.00,WUHU216DAVISVP2,2013-11-26 19:38:00,
2013-11-26 11:39:00,52.5,40.4,30.17,ESE,104,0.0,3.0,63,0.00,,,0.00,WUHU216DAVISVP2,2013-11-26 19:39:00,
2013-11-26 11:41:00,52.8,41.1,30.17,ESE,104,0.0,3.0,64,0.00,,,0.00,WUHU216DAVISVP2,2013-11-26 19:41:00,
2013-11-26 11:42:00,53.0,40.9,30.16,SE,145,0.0,3.0,63,0.00,,,0.00,WUHU216DAVISVP2,2013-11-26 19:42:00,
2013-11-26 11:44:00,53.2,41.0,30.16,SW,217,0.0,3.0,63,0.00,,,0.00,WUHU216DAVISVP2,2013-11-26 19:44:00,
2013-11-26 11:46:00,53.5,41.3,30.16,ENE,77,0.0,3.0,63,0.00,,,0.00,WUHU216DAVISVP2,2013-11-26 19:46:00,
2013-11-26 11:47:00,53.7,41.1,30.16,East,96,1.0,3.0,62,0.00,,,0.00,WUHU216DAVISVP2,2013-11-26 19:47:00,
2013-11-26 11:48:00,53.8,40.8,30.16,NE,42,0.0,3.0,61,0.00,,,0.00,WUHU216DAVISVP2,2013-11-26 19:48:00,
2013-11-26 11:49:00,53.9,41.3,30.16,NE,43,0.0,3.0,62,0.00,,,0.00,WUHU216DAVISVP2,2013-11-26 19:49:00,
2013-11-26 11:51:00,54.1,41.1,30.16,SE,127,2.0,3.0,61,0.00,,,0.00,WUHU216DAVISVP2,2013-11-26 19:51:00,
2013-11-26 11:52:00,54.2,41.6,30.16,SE,127,0.0,3.0,62,0.00,,,0.00,WUHU216DAVISVP2,2013-11-26 19:52:00,
2013-11-26 11:53:00,54.3,41.2,30.16,ESE,107,0.0,3.0,61,0.00,,,0.00,WUHU216DAVISVP2,2013-11-26 19:53:00,
2013-11-26 11:54:00,54.4,40.8,30.16,ESE,108,0.0,3.0,60,0.00,,,0.00,WUHU216DAVISVP2,2013-11-26 19:54:00,
2013-11-26 11:56:00,54.5,40.9,30.16,ENE,69,0.0,3.0,60,0.00,,,0.00,WUHU216DAVISVP2,2013-11-26 19:56:00,
2013-11-26 11:57:00,54.6,41.8,30.16,ENE,69,0.0,3.0,62,0.00,,,0.00,WUHU216DAVISVP2,2013-11-26 19:57:00,
2013-11-26 11:59:00,54.8,41.6,30.16,ESE,112,0.0,3.0,61,0.00,,,0.00,WUHU216DAVISVP2,2013-11-26 19:59:00,
2013-11-26 12:00:00,54.9,41.7,30.16,SE,131,0.0,3.0,61,0.00,,,0.00,WUHU216DAVISVP2,2013-11-26 20:00:00,
2013-11-26 12:01:00,55.1,42.0,30.16,SE,139,0.0,3.0,61,0.00,,,0.00,WUHU216DAVISVP2,2013-11-26 20:01:00,
2013-11-26 12:02:00,55.1,42.0,30.16,East,96,0.0,3.0,61,0.00,,,0.00,WUHU216DAVISVP2,2013-11-26 20:02:00,
2013-11-26 12:04:00,55.1,41.1,30.16,ESE,110,0.0,3.0,59,0.00,,,0.00,WUHU216DAVISVP2,2013-11-26 20:04:00,
2013-11-26 12:05:00,55.2,42.0,30.16,ESE,110,0.0,3.0,61,0.00,,,0.00,WUHU216DAVISVP2,2013-11-26 20:05:00,
2013-11-26 12:07:00,55.3,41.8,30.16,WSW,243,0.0,3.0,60,0.00,,,0.00,WUHU216DAVISVP2,2013-11-26 20:07:00,
2013-11-26 12:09:00,55.4,41.4,30.16,ESE,122,0.0,3.0,59,0.00,,,0.00,WUHU216DAVISVP2,2013-11-26 20:09:00,
2013-11-26 12:10:00,55.5,41.5,30.16,SE,142,0.0,3.0,59,0.00,,,0.00,WUHU216DAVISVP2,2013-11-26 20:10:00,
2013-11-26 12:11:00,55.5,41.5,30.16,SE,142,0.0,2.0,59,0.00,,,0.00,WUHU216DAVISVP2,2013-11-26 20:11:00,
2013-11-26 12:12:00,55.7,41.7,30.16,SW,236,0.0,2.0,59,0.00,,,0.00,WUHU216DAVISVP2,2013-11-26 20:12:00,
2013-11-26 12:14:00,55.9,42.3,30.16,ESE,111,0.0,1.0,60,0.00,,,0.00,WUHU216DAVISVP2,2013-11-26 20:14:00,
2013-11-26 12:15:00,56.0,41.9,30.16,SE,124,0.0,1.0,59,0.00,,,0.00,WUHU216DAVISVP2,2013-11-26 20:15:00,
2013-11-26 12:16:00,56.0,41.9,30.16,SSE,163,0.0,1.0,59,0.00,,,0.00,WUHU216DAVISVP2,2013-11-26 20:16:00,
2013-11-26 12:17:00,56.0,41.5,30.15,SSW,200,0.0,1.0,58,0.00,,,0.00,WUHU216DAVISVP2,2013-11-26 20:17:00,
2013-11-26 12:18:00,56.0,41.5,30.15,ESE,109,1.0,1.0,58,0.00,,,0.00,WUHU216DAVISVP2,2013-11-26 20:18:00,
2013-11-26 12:19:00,55.9,41.4,30.16,ESE,116,0.0,2.0,58,0.00,,,0.00,WUHU216DAVISVP2,2013-11-26 20:19:00,
2013-11-26 12:21:00,55.8,42.2,30.15,SSW,193,0.0,2.0,60,0.00,,,0.00,WUHU216DAVISVP2,2013-11-26 20:21:00,
2013-11-26 12:22:00,55.8,41.8,30.16,SSE,165,0.0,2.0,59,0.00,,,0.00,WUHU216DAVISVP2,2013-11-26 20:22:00,
2013-11-26 12:23:00,55.8,42.2,30.16,South,174,0.0,2.0,60,0.00,,,0.00,WUHU216DAVISVP2,2013-11-26 20:23:00,
2013-11-26 12:24:00,55.8,41.8,30.15,ESE,102,0.0,2.0,59,0.00,,,0.00,WUHU216DAVISVP2,2013-11-26 20:24:00,
2013-11-26 12:26:00,55.8,41.8,30.15,SE,136,0.0,2.0,59,0.00,,,0.00,WUHU216DAVISVP2,2013-11-26 20:26:00,
2013-11-26 12:27:00,55.8,41.8,30.15,SE,136,0.0,2.0,59,0.00,,,0.00,WUHU216DAVISVP2,2013-11-26 20:27:00,
2013-11-26 12:28:00,55.8,41.8,30.15,SE,133,0.0,2.0,59,0.00,,,0.00,WUHU216DAVISVP2,2013-11-26 20:28:00,
2013-11-26 12:29:00,55.8,42.2,30.15,SE,131,0.0,2.0,60,0.00,,,0.00,WUHU216DAVISVP2,2013-11-26 20:29:00,
2013-11-26 12:31:00,55.8,41.8,30.15,ESE,120,0.0,2.0,59,0.00,,,0.00,WUHU216DAVISVP2,2013-11-26 20:31:00,
2013-11-26 12:32:00,55.8,41.8,30.15,ESE,120,0.0,2.0,59,0.00,,,0.00,WUHU216DAVISVP2,2013-11-26 20:32:00,
2013-11-26 12:33:00,55.8,41.8,30.15,SE,124,0.0,2.0,59,0.00,,,0.00,WUHU216DAVISVP2,2013-11-26 20:33:00,
2013-11-26 12:35:00,55.8,41.8,30.15,ESE,123,0.0,2.0,59,0.00,,,0.00,WUHU216DAVISVP2,2013-11-26 20:35:00,
2013-11-26 12:36:00,55.9,42.8,30.15,SE,124,0.0,2.0,61,0.00,,,0.00,WUHU216DAVISVP2,2013-11-26 20:36:00,
2013-11-26 12:37:00,56.0,42.9,30.15,ESE,123,0.0,1.0,61,0.00,,,0.00,WUHU216DAVISVP2,2013-11-26 20:37:00,
2013-11-26 12:38:00,56.0,42.9,30.15,SE,124,0.0,1.0,61,0.00,,,0.00,WUHU216DAVISVP2,2013-11-26 20:38:00,
2013-11-26 12:40:00,56.1,42.1,30.15,East,85,0.0,1.0,59,0.00,,,0.00,WUHU216DAVISVP2,2013-11-26 20:40:00,
2013-11-26 12:41:00,56.1,42.1,30.14,East,85,0.0,1.0,59,0.00,,,0.00,WUHU216DAVISVP2,2013-11-26 20:41:00,
2013-11-26 12:42:00,56.2,42.2,30.14,East,85,0.0,1.0,59,0.00,,,0.00,WUHU216DAVISVP2,2013-11-26 20:42:00,
2013-11-26 12:43:00,56.2,43.0,30.14,East,85,0.0,1.0,61,0.00,,,0.00,WUHU216DAVISVP2,2013-11-26 20:43:00,
2013-11-26 12:44:00,56.2,42.2,30.14,SE,136,0.0,1.0,59,0.00,,,0.00,WUHU216DAVISVP2,2013-11-26 20:44:00,
2013-11-26 12:45:00,56.2,42.2,30.14,SE,136,0.0,1.0,59,0.00,,,0.00,WUHU216DAVISVP2,2013-11-26 20:45:00,
2013-11-26 12:47:00,56.3,42.7,30.14,ENE,71,0.0,1.0,60,0.00,,,0.00,WUHU216DAVISVP2,2013-11-26 20:47:00,
2013-11-26 12:48:00,56.3,42.3,30.14,SE,134,0.0,1.0,59,0.00,,,0.00,WUHU216DAVISVP2,2013-11-26 20:48:00,
2013-11-26 12:49:00,56.3,42.3,30.14,SE,130,0.0,1.0,59,0.00,,,0.00,WUHU216DAVISVP2,2013-11-26 20:49:00,
2013-11-26 12:50:00,56.3,42.7,30.14,East,79,0.0,1.0,60,0.00,,,0.00,WUHU216DAVISVP2,2013-11-26 20:50:00,
2013-11-26 12:52:00,56.3,43.1,30.14,ENE,77,0.0,1.0,61,0.00,,,0.00,WUHU216DAVISVP2,2013-11-26 20:52:00,
2013-11-26 12:53:00,56.4,43.2,30.14,ENE,77,0.0,1.0,61,0.00,,,0.00,WUHU216DAVISVP2,2013-11-26 20:53:00,
2013-11-26 12:54:00,56.4,42.8,30.14,ENE,77,0.0,1.0,60,0.00,,,0.00,WUHU216DAVISVP2,2013-11-26 20:54:00,
2013-11-26 12:55:00,56.4,43.2,30.14,SSE,158,0.0,1.0,61,0.00,,,0.00,WUHU216DAVISVP2,2013-11-26 20:55:00,
2013-11-26 12:57:00,56.4,42.4,30.14,SSE,147,0.0,2.0,59,0.00,,,0.00,WUHU216DAVISVP2,2013-11-26 20:57:00,
2013-11-26 12:58:00,56.3,42.3,30.14,ESE,122,0.0,2.0,59,0.00,,,0.00,WUHU216DAVISVP2,2013-11-26 20:58:00,
2013-11-26 12:59:00,56.3,42.3,30.14,ESE,122,0.0,2.0,59,0.00,,,0.00,WUHU216DAVISVP2,2013-11-26 20:59:00,
2013-11-26 13:00:00,56.3,42.7,30.14,ESE,117,0.0,2.0,60,0.00,,,0.00,WUHU216DAVISVP2,2013-11-26 21:00:00,
2013-11-26 13:03:00,56.3,43.1,30.14,SE,129,0.0,2.0,61,0.00,,,0.00,WUHU216DAVISVP2,2013-11-26 21:03:00,
2013-11-26 13:04:00,56.3,43.1,30.14,SE,128,0.0,2.0,61,0.00,,,0.00,WUHU216DAVISVP2,2013-11-26 21:04:00,
2013-11-26 13:05:00,56.3,43.6,30.13,SE,128,0.0,2.0,62,0.00,,,0.00,WUHU216DAVISVP2,2013-11-26 21:05:00,
2013-11-26 13:08:00,56.4,42.8,30.13,SSW,205,0.0,2.0,60,0.00,,,0.00,WUHU216DAVISVP2,2013-11-26 21:08:00,
2013-11-26 13:09:00,56.5,43.8,30.13,SSW,205,0.0,2.0,62,0.00,,,0.00,WUHU216DAVISVP2,2013-11-26 21:09:00,
2013-11-26 13:10:00,56.5,42.8,30.13,SSE,149,0.0,2.0,60,0.00,,,0.00,WUHU216DAVISVP2,2013-11-26 21:10:00,
2013-11-26 13:13:00,56.6,42.9,30.13,SSE,148,0.0,2.0,60,0.00,,,0.00,WUHU216DAVISVP2,2013-11-26 21:13:00,
2013-11-26 13:14:00,56.6,42.9,30.13,SSE,148,0.0,2.0,60,0.00,,,0.00,WUHU216DAVISVP2,2013-11-26 21:14:00,
2013-11-26 13:15:00,56.5,42.8,30.13,SSE,148,0.0,2.0,60,0.00,,,0.00,WUHU216DAVISVP2,2013-11-26 21:15:00,
2013-11-26 13:16:00,56.5,42.8,30.13,SSE,148,0.0,1.0,60,0.00,,,0.00,WUHU216DAVISVP2,2013-11-26 21:16:00,
2013-11-26 13:19:00,56.4,42.7,30.13,SE,142,0.0,1.0,60,0.00,,,0.00,WUHU216DAVISVP2,2013-11-26 21:19:00,
2013-11-26 13:20:00,56.4,43.1,30.13,SSE,152,0.0,1.0,61,0.00,,,0.00,WUHU216DAVISVP2,2013-11-26 21:20:00,
2013-11-26 13:21:00,56.4,43.7,30.13,SSE,152,0.0,1.0,62,0.00,,,0.00,WUHU216DAVISVP2,2013-11-26 21:21:00,
2013-11-26 13:24:00,56.4,43.2,30.13,SE,141,0.0,1.0,61,0.00,,,0.00,WUHU216DAVISVP2,2013-11-26 21:24:00,
2013-11-26 13:25:00,56.3,43.1,30.13,SE,143,0.0,1.0,61,0.00,,,0.00,WUHU216DAVISVP2,2013-11-26 21:25:00,
2013-11-26 13:26:00,56.3,43.1,30.13,SE,143,0.0,1.0,61,0.00,,,0.00,WUHU216DAVISVP2,2013-11-26 21:26:00,
2013-11-26 13:29:00,56.4,43.2,30.13,SE,143,0.0,1.0,61,0.00,,,0.00,WUHU216DAVISVP2,2013-11-26 21:29:00,
2013-11-26 13:30:00,56.4,43.2,30.13,SE,143,0.0,1.0,61,0.00,,,0.00,WUHU216DAVISVP2,2013-11-26 21:30:00,
2013-11-26 13:31:00,56.5,43.2,30.13,SE,143,0.0,1.0,61,0.00,,,0.00,WUHU216DAVISVP2,2013-11-26 21:31:00,
2013-11-26 13:32:00,56.4,43.1,30.13,SE,143,0.0,1.0,61,0.00,,,0.00,WUHU216DAVISVP2,2013-11-26 21:32:00,
2013-11-26 13:34:00,56.3,43.1,30.13,SE,127,0.0,1.0,61,0.00,,,0.00,WUHU216DAVISVP2,2013-11-26 21:34:00,
2013-11-26 13:35:00,56.3,43.1,30.13,East,89,1.0,1.0,61,0.00,,,0.00,WUHU216DAVISVP2,2013-11-26 21:35:00,
2013-11-26 13:36:00,56.1,43.0,30.12,East,80,0.0,1.0,61,0.00,,,0.00,WUHU216DAVISVP2,2013-11-26 21:36:00,
2013-11-26 13:37:00,56.0,43.3,30.12,NNE,16,1.0,1.0,62,0.00,,,0.00,WUHU216DAVISVP2,2013-11-26 21:37:00,
2013-11-26 13:40:00,55.8,43.1,30.12,North,8,0.0,1.0,62,0.00,,,0.00,WUHU216DAVISVP2,2013-11-26 21:40:00,
2013-11-26 13:42:00,55.7,43.0,30.12,SSE,150,0.0,1.0,62,0.00,,,0.00,WUHU216DAVISVP2,2013-11-26 21:42:00,
2013-11-26 13:45:00,55.7,43.0,30.12,SE,145,0.0,1.0,62,0.00,,,0.00,WUHU216DAVISVP2,2013-11-26 21:45:00,
2013-11-26 13:47:00,55.7,43.0,30.12,East,101,0.0,1.0,62,0.00,,,0.00,WUHU216DAVISVP2,2013-11-26 21:47:00,
2013-11-26 13:50:00,55.6,43.3,30.11,ESE,122,0.0,1.0,63,0.00,,,0.00,WUHU216DAVISVP2,2013-11-26 21:50:00,
2013-11-26 13:51:00,55.6,43.3,30.11,SE,141,0.0,1.0,63,0.00,,,0.00,WUHU216DAVISVP2,2013-11-26 21:51:00,
2013-11-26 13:52:00,55.6,43.3,30.11,SE,131,0.0,1.0,63,0.00,,,0.00,WUHU216DAVISVP2,2013-11-26 21:52:00,
2013-11-26 13:55:00,55.6,43.7,30.11,SE,124,0.0,1.0,64,0.00,,,0.00,WUHU216DAVISVP2,2013-11-26 21:55:00,
2013-11-26 13:56:00,55.6,43.7,30.11,SSE,153,0.0,1.0,64,0.00,,,0.00,WUHU216DAVISVP2,2013-11-26 21:56:00,
2013-11-26 13:57:00,55.6,43.3,30.11,SSW,209,0.0,2.0,63,0.00,,,0.00,WUHU216DAVISVP2,2013-11-26 21:57:00,
2013-11-26 13:58:00,55.7,43.4,30.11,South,190,0.0,2.0,63,0.00,,,0.00,WUHU216DAVISVP2,2013-11-26 21:58:00,
2013-11-26 14:00:00,55.7,43.4,30.11,SW,221,0.0,2.0,63,0.00,,,0.00,WUHU216DAVISVP2,2013-11-26 22:00:00,
2013-11-26 14:01:00,55.7,43.4,30.11,SW,221,0.0,2.0,63,0.00,,,0.00,WUHU216DAVISVP2,2013-11-26 22:01:00,
2013-11-26 14:02:00,55.7,43.4,30.11,South,186,0.0,2.0,63,0.00,,,0.00,WUHU216DAVISVP2,2013-11-26 22:02:00,
2013-11-26 14:03:00,55.7,43.8,30.11,SSE,148,0.0,2.0,64,0.00,,,0.00,WUHU216DAVISVP2,2013-11-26 22:03:00,
2013-11-26 14:05:00,55.7,43.8,30.11,SE,131,0.0,2.0,64,0.00,,,0.00,WUHU216DAVISVP2,2013-11-26 22:05:00,
2013-11-26 14:06:00,55.7,43.8,30.11,SE,131,0.0,2.0,64,0.00,,,0.00,WUHU216DAVISVP2,2013-11-26 22:06:00,
2013-11-26 14:07:00,55.6,43.7,30.11,SE,136,0.0,2.0,64,0.00,,,0.00,WUHU216DAVISVP2,2013-11-26 22:07:00,
2013-11-26 14:09:00,55.6,43.3,30.11,ESE,123,0.0,2.0,63,0.00,,,0.00,WUHU216DAVISVP2,2013-11-26 22:09:00,
2013-11-26 14:11:00,55.6,43.3,30.11,SSW,211,1.0,2.0,63,0.00,,,0.00,WUHU216DAVISVP2,2013-11-26 22:11:00,
2013-11-26 14:12:00,55.6,43.3,30.11,SSW,198,0.0,2.0,63,0.00,,,0.00,WUHU216DAVISVP2,2013-11-26 22:12:00,
2013-11-26 14:14:00,55.6,43.3,30.10,SSW,198,0.0,2.0,63,0.00,,,0.00,WUHU216DAVISVP2,2013-11-26 22:14:00,
2013-11-26 14:16:00,55.6,43.7,30.10,SSW,197,0.0,1.0,64,0.00,,,0.00,WUHU216DAVISVP2,2013-11-26 22:16:00,
2013-11-26 14:17:00,55.6,43.7,30.10,WSW,253,0.0,1.0,64,0.00,,,0.00,WUHU216DAVISVP2,2013-11-26 22:17:00,
2013-11-26 14:18:00,55.7,43.8,30.10,WSW,253,0.0,1.0,64,0.00,,,0.00,WUHU216DAVISVP2,2013-11-26 22:18:00,
2013-11-26 14:19:00,55.7,43.8,30.10,WSW,253,0.0,1.0,64,0.00,,,0.00,WUHU216DAVISVP2,2013-11-26 22:19:00,
2013-11-26 14:21:00,55.7,43.8,30.10,WSW,253,0.0,1.0,64,0.00,,,0.00,WUHU216DAVISVP2,2013-11-26 22:21:00,
2013-11-26 14:22:00,55.7,43.4,30.10,SSE,159,0.0,1.0,63,0.00,,,0.00,WUHU216DAVISVP2,2013-11-26 22:22:00,
2013-11-26 14:24:00,55.7,43.0,30.10,WSW,242,0.0,1.0,62,0.00,,,0.00,WUHU216DAVISVP2,2013-11-26 22:24:00,
2013-11-26 14:26:00,55.8,43.1,30.10,WSW,248,0.0,1.0,62,0.00,,,0.00,WUHU216DAVISVP2,2013-11-26 22:26:00,
2013-11-26 14:27:00,55.8,42.7,30.10,SSW,198,0.0,1.0,61,0.00,,,0.00,WUHU216DAVISVP2,2013-11-26 22:27:00,
2013-11-26 14:29:00,55.8,43.1,30.10,SW,214,0.0,1.0,62,0.00,,,0.00,WUHU216DAVISVP2,2013-11-26 22:29:00,
2013-11-26 14:31:00,55.9,43.2,30.10,SSE,148,1.0,1.0,62,0.00,,,0.00,WUHU216DAVISVP2,2013-11-26 22:31:00,
2013-11-26 14:32:00,55.9,42.8,30.10,SE,134,0.0,2.0,61,0.00,,,0.00,WUHU216DAVISVP2,2013-11-26 22:32:00,
2013-11-26 14:33:00,55.9,42.8,30.10,SE,134,0.0,2.0,61,0.00,,,0.00,WUHU216DAVISVP2,2013-11-26 22:33:00,
2013-11-26 14:34:00,55.9,42.8,30.10,SW,221,0.0,2.0,61,0.00,,,0.00,WUHU216DAVISVP2,2013-11-26 22:34:00,
2013-11-26 14:35:00,55.9,42.8,30.10,SSW,205,0.0,2.0,61,0.00,,,0.00,WUHU216DAVISVP2,2013-11-26 22:35:00,
2013-11-26 14:36:00,55.9,42.8,30.10,East,96,0.0,2.0,61,0.00,,,0.00,WUHU216DAVISVP2,2013-11-26 22:36:00,
2013-11-26 14:37:00,55.9,42.8,30.10,SE,142,0.0,2.0,61,0.00,,,0.00,WUHU216DAVISVP2,2013-11-26 22:37:00,
2013-11-26 14:38:00,55.9,42.3,30.10,SE,143,0.0,2.0,60,0.00,,,0.00,WUHU216DAVISVP2,2013-11-26 22:38:00,
2013-11-26 14:39:00,55.9,42.8,30.10,SE,144,0.0,2.0,61,0.00,,,0.00,WUHU216DAVISVP2,2013-11-26 22:39:00,
2013-11-26 14:40:00,55.9,42.8,30.10,SE,144,0.0,2.0,61,0.00,,,0.00,WUHU216DAVISVP2,2013-11-26 22:40:00,
2013-11-26 14:41:00,55.9,42.8,30.10,SE,144,0.0,2.0,61,0.00,,,0.00,WUHU216DAVISVP2,2013-11-26 22:41:00,
2013-11-26 14:42:00,55.9,42.8,30.10,SE,131,0.0,2.0,61,0.00,,,0.00,WUHU216DAVISVP2,2013-11-26 22:42:00,
2013-11-26 14:43:00,55.9,42.8,30.10,ESE,117,0.0,2.0,61,0.00,,,0.00,WUHU216DAVISVP2,2013-11-26 22:43:00,
2013-11-26 14:44:00,56.0,42.9,30.10,ESE,103,1.0,2.0,61,0.00,,,0.00,WUHU216DAVISVP2,2013-11-26 22:44:00,
2013-11-26 14:45:00,56.0,42.9,30.10,ESE,103,0.0,2.0,61,0.00,,,0.00,WUHU216DAVISVP2,2013-11-26 22:45:00,
2013-11-26 14:46:00,56.0,42.7,30.10,SSE,148,0.0,2.0,61,0.00,,,0.00,WUHU216DAVISVP2,2013-11-26 22:46:00,
2013-11-26 14:48:00,56.0,42.9,30.10,SE,138,0.0,2.0,61,0.00,,,0.00,WUHU216DAVISVP2,2013-11-26 22:48:00,
2013-11-26 14:49:00,56.0,42.7,30.10,SE,137,0.0,2.0,61,0.00,,,0.00,WUHU216DAVISVP2,2013-11-26 22:49:00,
2013-11-26 14:50:00,56.0,42.7,30.10,ESE,110,0.0,2.0,61,0.00,,,0.00,WUHU216DAVISVP2,2013-11-26 22:50:00,
2013-11-26 14:51:00,56.1,42.8,30.10,ENE,73,0.0,2.0,61,0.00,,,0.00,WUHU216DAVISVP2,2013-11-26 22:51:00,
2013-11-26 14:53:00,56.1,42.8,30.10,ESE,110,0.0,2.0,61,0.00,,,0.00,WUHU216DAVISVP2,2013-11-26 22:53:00,
2013-11-26 14:54:00,56.2,42.9,30.10,SE,139,1.0,2.0,61,0.00,,,0.00,WUHU216DAVISVP2,2013-11-26 22:54:00,
2013-11-26 14:55:00,56.2,42.9,30.10,SE,131,0.0,2.0,61,0.00,,,0.00,WUHU216DAVISVP2,2013-11-26 22:55:00,
2013-11-26 14:56:00,56.3,42.6,30.09,SE,124,0.0,1.0,60,0.00,,,0.00,WUHU216DAVISVP2,2013-11-26 22:56:00,
2013-11-26 14:58:00,56.3,42.6,30.09,SE,146,0.0,1.0,60,0.00,,,0.00,WUHU216DAVISVP2,2013-11-26 22:58:00,
2013-11-26 14:59:00,56.3,42.6,30.10,SSE,157,0.0,1.0,60,0.00,,,0.00,WUHU216DAVISVP2,2013-11-26 22:59:00,
2013-11-26 15:00:00,56.3,42.6,30.10,ESE,121,0.0,1.0,60,0.00,,,0.00,WUHU216DAVISVP2,2013-11-26 23:00:00,
2013-11-26 15:01:00,56.4,42.7,30.10,SSE,150,0.0,1.0,60,0.00,,,0.00,WUHU216DAVISVP2,2013-11-26 23:01:00,
2013-11-26 15:04:00,56.4,42.7,30.10,SE,134,0.0,2.0,60,0.00,,,0.00,WUHU216DAVISVP2,2013-11-26 23:04:00,
2013-11-26 15:05:00,56.4,42.7,30.10,ESE,117,0.0,2.0,60,0.00,,,0.00,WUHU216DAVISVP2,2013-11-26 23:05:00,
2013-11-26 15:06:00,56.4,42.7,30.10,ESE,117,0.0,2.0,60,0.00,,,0.00,WUHU216DAVISVP2,2013-11-26 23:06:00,
2013-11-26 15:09:00,56.3,42.7,30.10,SSE,158,0.0,2.0,60,0.00,,,0.00,WUHU216DAVISVP2,2013-11-26 23:09:00,
2013-11-26 15:10:00,56.3,42.6,30.10,SSE,155,0.0,2.0,60,0.00,,,0.00,WUHU216DAVISVP2,2013-11-26 23:10:00,
2013-11-26 15:11:00,56.3,42.6,30.10,ESE,111,0.0,2.0,60,0.00,,,0.00,WUHU216DAVISVP2,2013-11-26 23:11:00,
2013-11-26 15:12:00,56.3,42.7,30.10,East,97,0.0,2.0,60,0.00,,,0.00,WUHU216DAVISVP2,2013-11-26 23:12:00,
2013-11-26 15:14:00,56.3,43.1,30.10,SE,131,0.0,2.0,61,0.00,,,0.00,WUHU216DAVISVP2,2013-11-26 23:14:00,
2013-11-26 15:15:00,56.3,43.1,30.10,SSE,162,0.0,2.0,61,0.00,,,0.00,WUHU216DAVISVP2,2013-11-26 23:15:00,
2013-11-26 15:16:00,56.3,42.7,30.10,SE,146,1.0,3.0,60,0.00,,,0.00,WUHU216DAVISVP2,2013-11-26 23:16:00,
2013-11-26 15:17:00,56.3,42.7,30.10,SSE,164,0.0,3.0,60,0.00,,,0.00,WUHU216DAVISVP2,2013-11-26 23:17:00,
2013-11-26 15:19:00,56.3,42.7,30.10,SSE,150,0.0,3.0,60,0.00,,,0.00,WUHU216DAVISVP2,2013-11-26 23:19:00,
2013-11-26 15:20:00,56.3,43.1,30.10,SSE,150,0.0,3.0,61,0.00,,,0.00,WUHU216DAVISVP2,2013-11-26 23:20:00,
2013-11-26 15:21:00,56.3,43.1,30.10,SSE,150,0.0,3.0,61,0.00,,,0.00,WUHU216DAVISVP2,2013-11-26 23:21:00,
2013-11-26 15:22:00,56.3,43.1,30.10,SSE,150,0.0,3.0,61,0.00,,,0.00,WUHU216DAVISVP2,2013-11-26 23:22:00,
2013-11-26 15:25:00,56.2,42.6,30.10,South,169,0.0,3.0,60,0.00,,,0.00,WUHU216DAVISVP2,2013-11-26 23:25:00,
2013-11-26 15:26:00,56.2,42.6,30.10,ENE,77,0.0,3.0,60,0.00,,,0.00,WUHU216DAVISVP2,2013-11-26 23:26:00,
2013-11-26 15:28:00,56.2,43.0,30.09,SSE,155,0.0,3.0,61,0.00,,,0.00,WUHU216DAVISVP2,2013-11-26 23:28:00,
2013-11-26 15:30:00,56.1,43.4,30.09,East,82,2.0,3.0,62,0.00,,,0.00,WUHU216DAVISVP2,2013-11-26 23:30:00,
2013-11-26 15:31:00,56.1,43.4,30.09,East,92,0.0,3.0,62,0.00,,,0.00,WUHU216DAVISVP2,2013-11-26 23:31:00,
2013-11-26 15:33:00,56.0,42.9,30.09,SE,137,0.0,3.0,61,0.00,,,0.00,WUHU216DAVISVP2,2013-11-26 23:33:00,
2013-11-26 15:35:00,55.9,43.2,30.09,SW,231,0.0,3.0,62,0.00,,,0.00,WUHU216DAVISVP2,2013-11-26 23:35:00,
2013-11-26 15:36:00,55.9,43.2,30.09,SE,139,2.0,3.0,62,0.00,,,0.00,WUHU216DAVISVP2,2013-11-26 23:36:00,
2013-11-26 15:37:00,55.8,42.7,30.09,ESE,105,1.0,3.0,61,0.00,,,0.00,WUHU216DAVISVP2,2013-11-26 23:37:00,
2013-11-26 15:38:00,55.8,42.7,30.09,ESE,105,0.0,3.0,61,0.00,,,0.00,WUHU216DAVISVP2,2013-11-26 23:38:00,
2013-11-26 15:40:00,55.6,42.9,30.09,SSE,158,0.0,3.0,62,0.00,,,0.00,WUHU216DAVISVP2,2013-11-26 23:40:00,
2013-11-26 15:41:00,55.6,42.5,30.09,ESE,120,0.0,3.0,61,0.00,,,0.00,WUHU216DAVISVP2,2013-11-26 23:41:00,
2013-11-26 15:42:00,55.5,42.4,30.09,ESE,120,0.0,3.0,61,0.00,,,0.00,WUHU216DAVISVP2,2013-11-26 23:42:00,
2013-11-26 15:43:00,55.5,42.4,30.09,SE,136,0.0,3.0,61,0.00,,,0.00,WUHU216DAVISVP2,2013-11-26 23:43:00,
2013-11-26 15:46:00,55.4,42.3,30.09,SE,129,0.0,3.0,61,0.00,,,0.00,WUHU216DAVISVP2,2013-11-26 23:46:00,
2013-11-26 15:47:00,55.3,42.6,30.09,SSE,154,0.0,3.0,62,0.00,,,0.00,WUHU216DAVISVP2,2013-11-26 23:47:00,
2013-11-26 15:48:00,55.3,42.2,30.09,ESE,122,0.0,3.0,61,0.00,,,0.00,WUHU216DAVISVP2,2013-11-26 23:48:00,
2013-11-26 15:49:00,55.2,42.1,30.10,ESE,114,0.0,3.0,61,0.00,,,0.00,WUHU216DAVISVP2,2013-11-26 23:49:00,
2013-11-26 15:51:00,55.1,42.4,30.10,SE,125,0.0,2.0,62,0.00,,,0.00,WUHU216DAVISVP2,2013-11-26 23:51:00,
2013-11-26 15:52:00,55.1,42.4,30.10,ESE,111,1.0,2.0,62,0.00,,,0.00,WUHU216DAVISVP2,2013-11-26 23:52:00,
2013-11-26 15:53:00,55.1,42.4,30.10,ESE,109,0.0,2.0,62,0.00,,,0.00,WUHU216DAVISVP2,2013-11-26 23:53:00,
2013-11-26 15:55:00,55.0,42.8,30.10,East,100,0.0,2.0,63,0.00,,,0.00,WUHU216DAVISVP2,2013-11-26 23:55:00,
2013-11-26 15:56:00,54.9,42.7,30.10,East,100,0.0,2.0,63,0.00,,,0.00,WUHU216DAVISVP2,2013-11-26 23:56:00,
2013-11-26 15:57:00,54.9,42.7,30.10,East,101,0.0,2.0,63,0.00,,,0.00,WUHU216DAVISVP2,2013-11-26 23:57:00,
2013-11-26 15:58:00,54.9,43.1,30.10,SE,130,0.0,2.0,64,0.00,,,0.00,WUHU216DAVISVP2,2013-11-26 23:58:00,
2013-11-26 16:00:00,54.8,43.0,30.10,SE,130,0.0,2.0,64,0.00,,,0.00,WUHU216DAVISVP2,2013-11-27 00:00:00,
2013-11-26 16:02:00,54.8,43.0,30.10,SE,130,0.0,2.0,64,0.00,,,0.00,WUHU216DAVISVP2,2013-11-27 00:02:00,
2013-11-26 16:04:00,54.7,42.9,30.10,SE,130,0.0,2.0,64,0.00,,,0.00,WUHU216DAVISVP2,2013-11-27 00:04:00,
2013-11-26 16:05:00,54.6,42.8,30.09,SSE,154,0.0,2.0,64,0.00,,,0.00,WUHU216DAVISVP2,2013-11-27 00:05:00,
2013-11-26 16:07:00,54.6,42.4,30.09,East,90,0.0,2.0,63,0.00,,,0.00,WUHU216DAVISVP2,2013-11-27 00:07:00,
2013-11-26 16:08:00,54.5,42.7,30.09,East,94,0.0,2.0,64,0.00,,,0.00,WUHU216DAVISVP2,2013-11-27 00:08:00,
2013-11-26 16:09:00,54.5,42.7,30.09,East,94,0.0,2.0,64,0.00,,,0.00,WUHU216DAVISVP2,2013-11-27 00:09:00,
2013-11-26 16:10:00,54.4,42.6,30.09,ESE,104,0.0,2.0,64,0.00,,,0.00,WUHU216DAVISVP2,2013-11-27 00:10:00,
2013-11-26 16:12:00,54.3,42.5,30.09,ESE,105,0.0,2.0,64,0.00,,,0.00,WUHU216DAVISVP2,2013-11-27 00:12:00,
2013-11-26 16:13:00,54.3,42.5,30.09,ESE,121,0.0,2.0,64,0.00,,,0.00,WUHU216DAVISVP2,2013-11-27 00:13:00,
2013-11-26 16:14:00,54.3,42.5,30.09,NE,56,0.0,2.0,64,0.00,,,0.00,WUHU216DAVISVP2,2013-11-27 00:14:00,
2013-11-26 16:16:00,54.2,42.4,30.09,East,79,0.0,2.0,64,0.00,,,0.00,WUHU216DAVISVP2,2013-11-27 00:16:00,
2013-11-26 16:17:00,54.1,42.3,30.10,East,79,0.0,2.0,64,0.00,,,0.00,WUHU216DAVISVP2,2013-11-27 00:17:00,
2013-11-26 16:18:00,54.1,42.3,30.10,East,79,0.0,2.0,64,0.00,,,0.00,WUHU216DAVISVP2,2013-11-27 00:18:00,
2013-11-26 16:19:00,54.1,42.3,30.10,SSW,204,0.0,2.0,64,0.00,,,0.00,WUHU216DAVISVP2,2013-11-27 00:19:00,
2013-11-26 16:21:00,54.0,42.6,30.10,South,190,0.0,2.0,65,0.00,,,0.00,WUHU216DAVISVP2,2013-11-27 00:21:00,
2013-11-26 16:22:00,53.9,42.5,30.10,South,190,0.0,2.0,65,0.00,,,0.00,WUHU216DAVISVP2,2013-11-27 00:22:00,
2013-11-26 16:23:00,53.8,42.4,30.10,SSW,193,0.0,2.0,65,0.00,,,0.00,WUHU216DAVISVP2,2013-11-27 00:23:00,
2013-11-26 16:24:00,53.8,42.4,30.10,SSW,193,0.0,2.0,65,0.00,,,0.00,WUHU216DAVISVP2,2013-11-27 00:24:00,
2013-11-26 16:26:00,53.7,42.3,30.10,SSW,192,0.0,1.0,65,0.00,,,0.00,WUHU216DAVISVP2,2013-11-27 00:26:00,
2013-11-26 16:27:00,53.6,42.6,30.10,SE,127,0.0,1.0,66,0.00,,,0.00,WUHU216DAVISVP2,2013-11-27 00:27:00,
2013-11-26 16:28:00,53.5,42.1,30.10,SE,127,0.0,1.0,65,0.00,,,0.00,WUHU216DAVISVP2,2013-11-27 00:28:00,
2013-11-26 16:29:00,53.5,42.1,30.10,SE,127,0.0,1.0,65,0.00,,,0.00,WUHU216DAVISVP2,2013-11-27 00:29:00,
2013-11-26 16:31:00,53.4,42.3,30.10,SE,127,0.0,1.0,66,0.00,,,0.00,WUHU216DAVISVP2,2013-11-27 00:31:00,
2013-11-26 16:32:00,53.3,42.2,30.10,SE,127,0.0,1.0,66,0.00,,,0.00,WUHU216DAVISVP2,2013-11-27 00:32:00,
2013-11-26 16:33:00,53.3,42.2,30.10,SE,127,0.0,1.0,66,0.00,,,0.00,WUHU216DAVISVP2,2013-11-27 00:33:00,
2013-11-26 16:34:00,53.2,42.1,30.10,SE,134,0.0,1.0,66,0.00,,,0.00,WUHU216DAVISVP2,2013-11-27 00:34:00,
2013-11-26 16:37:00,53.0,42.5,30.10,SSE,150,0.0,1.0,67,0.00,,,0.00,WUHU216DAVISVP2,2013-11-27 00:37:00,
2013-11-26 16:38:00,52.9,42.4,30.10,SSE,150,0.0,1.0,67,0.00,,,0.00,WUHU216DAVISVP2,2013-11-27 00:38:00,
2013-11-26 16:39:00,52.9,42.4,30.10,SSE,150,0.0,1.0,67,0.00,,,0.00,WUHU216DAVISVP2,2013-11-27 00:39:00,
2013-11-26 16:40:00,52.8,42.6,30.10,SSE,150,0.0,1.0,68,0.00,,,0.00,WUHU216DAVISVP2,2013-11-27 00:40:00,
2013-11-26 16:43:00,52.6,42.5,30.10,SSE,150,0.0,1.0,68,0.00,,,0.00,WUHU216DAVISVP2,2013-11-27 00:43:00,
2013-11-26 16:44:00,52.5,42.4,30.10,SSE,150,0.0,1.0,68,0.00,,,0.00,WUHU216DAVISVP2,2013-11-27 00:44:00,
2013-11-26 16:45:00,52.4,42.6,30.10,ESE,122,0.0,1.0,69,0.00,,,0.00,WUHU216DAVISVP2,2013-11-27 00:45:00,
2013-11-26 16:48:00,52.2,42.4,30.10,SE,138,0.0,1.0,69,0.00,,,0.00,WUHU216DAVISVP2,2013-11-27 00:48:00,
2013-11-26 16:49:00,52.1,42.4,30.10,SW,217,0.0,1.0,69,0.00,,,0.00,WUHU216DAVISVP2,2013-11-27 00:49:00,
2013-11-26 16:50:00,52.0,42.3,30.10,SW,217,0.0,1.0,69,0.00,,,0.00,WUHU216DAVISVP2,2013-11-27 00:50:00,
2013-11-26 16:53:00,51.8,42.4,30.10,SW,217,0.0,1.0,70,0.00,,,0.00,WUHU216DAVISVP2,2013-11-27 00:53:00,
2013-11-26 16:54:00,51.8,42.4,30.10,SW,217,0.0,1.0,70,0.00,,,0.00,WUHU216DAVISVP2,2013-11-27 00:54:00,
2013-11-26 16:55:00,51.8,42.4,30.09,SW,217,0.0,1.0,70,0.00,,,0.00,WUHU216DAVISVP2,2013-11-27 00:55:00,
2013-11-26 16:56:00,51.7,42.3,30.09,SW,217,0.0,1.0,70,0.00,,,0.00,WUHU216DAVISVP2,2013-11-27 00:56:00,
2013-11-26 16:58:00,51.6,42.6,30.10,WSW,238,0.0,1.0,71,0.00,,,0.00,WUHU216DAVISVP2,2013-11-27 00:58:00,
2013-11-26 16:59:00,51.6,42.6,30.09,WSW,238,0.0,1.0,71,0.00,,,0.00,WUHU216DAVISVP2,2013-11-27 00:59:00,
2013-11-26 17:00:00,51.6,42.6,30.09,WSW,238,0.0,1.0,71,0.00,,,0.00,WUHU216DAVISVP2,2013-11-27 01:00:00,
2013-11-26 17:02:00,51.5,42.5,30.09,WSW,238,0.0,1.0,71,0.00,,,0.00,WUHU216DAVISVP2,2013-11-27 01:02:00,
2013-11-26 17:04:00,51.5,42.1,30.09,ESE,105,0.0,1.0,70,0.00,,,0.00,WUHU216DAVISVP2,2013-11-27 01:04:00,
2013-11-26 17:05:00,51.4,42.4,30.09,ESE,105,0.0,1.0,71,0.00,,,0.00,WUHU216DAVISVP2,2013-11-27 01:05:00,
2013-11-26 17:08:00,51.3,42.3,30.09,ESE,105,0.0,1.0,71,0.00,,,0.00,WUHU216DAVISVP2,2013-11-27 01:08:00,
2013-11-26 17:09:00,51.3,42.3,30.09,ESE,105,0.0,1.0,71,0.00,,,0.00,WUHU216DAVISVP2,2013-11-27 01:09:00,
2013-11-26 17:10:00,51.2,42.2,30.09,ESE,105,0.0,1.0,71,0.00,,,0.00,WUHU216DAVISVP2,2013-11-27 01:10:00,
2013-11-26 17:11:00,51.2,42.2,30.09,ESE,105,0.0,1.0,71,0.00,,,0.00,WUHU216DAVISVP2,2013-11-27 01:11:00,
2013-11-26 17:13:00,51.0,42.4,30.09,ESE,105,0.0,1.0,72,0.00,,,0.00,WUHU216DAVISVP2,2013-11-27 01:13:00,
2013-11-26 17:14:00,51.0,42.4,30.09,ESE,105,0.0,1.0,72,0.00,,,0.00,WUHU216DAVISVP2,2013-11-27 01:14:00,
2013-11-26 17:15:00,50.9,42.3,30.09,ESE,105,0.0,1.0,72,0.00,,,0.00,WUHU216DAVISVP2,2013-11-27 01:15:00,
2013-11-26 17:16:00,50.9,42.3,30.09,ESE,105,0.0,1.0,72,0.00,,,0.00,WUHU216DAVISVP2,2013-11-27 01:16:00,
2013-11-26 17:18:00,50.8,42.2,30.09,South,170,0.0,0.0,72,0.00,,,0.00,WUHU216DAVISVP2,2013-11-27 01:18:00,
2013-11-26 17:19:00,50.8,42.2,30.09,South,170,0.0,0.0,72,0.00,,,0.00,WUHU216DAVISVP2,2013-11-27 01:19:00,
2013-11-26 17:20:00,50.7,42.1,30.09,South,170,0.0,0.0,72,0.00,,,0.00,WUHU216DAVISVP2,2013-11-27 01:20:00,
2013-11-26 17:21:00,50.7,42.1,30.09,South,170,0.0,0.0,72,0.00,,,0.00,WUHU216DAVISVP2,2013-11-27 01:21:00,
2013-11-26 17:23:00,50.6,42.0,30.09,South,170,0.0,0.0,72,0.00,,,0.00,WUHU216DAVISVP2,2013-11-27 01:23:00,
2013-11-26 17:24:00,50.6,42.0,30.09,South,170,0.0,0.0,72,0.00,,,0.00,WUHU216DAVISVP2,2013-11-27 01:24:00,
2013-11-26 17:25:00,50.5,42.3,30.09,South,170,0.0,0.0,73,0.00,,,0.00,WUHU216DAVISVP2,2013-11-27 01:25:00,
2013-11-26 17:26:00,50.5,42.3,30.09,South,170,0.0,0.0,73,0.00,,,0.00,WUHU216DAVISVP2,2013-11-27 01:26:00,
2013-11-26 17:29:00,50.4,42.2,30.09,South,170,0.0,0.0,73,0.00,,,0.00,WUHU216DAVISVP2,2013-11-27 01:29:00,
2013-11-26 17:30:00,50.4,42.2,30.09,South,170,0.0,0.0,73,0.00,,,0.00,WUHU216DAVISVP2,2013-11-27 01:30:00,
2013-11-26 17:31:00,50.4,42.2,30.09,South,170,0.0,0.0,73,0.00,,,0.00,WUHU216DAVISVP2,2013-11-27 01:31:00,
2013-11-26 17:33:00,50.3,42.1,30.09,South,170,0.0,0.0,73,0.00,,,0.00,WUHU216DAVISVP2,2013-11-27 01:33:00,
2013-11-26 17:34:00,50.3,42.1,30.09,South,170,0.0,0.0,73,0.00,,,0.00,WUHU216DAVISVP2,2013-11-27 01:34:00,
2013-11-26 17:35:00,50.3,42.1,30.09,South,170,0.0,0.0,73,0.00,,,0.00,WUHU216DAVISVP2,2013-11-27 01:35:00,
2013-11-26 17:36:00,50.3,42.1,30.09,South,170,0.0,0.0,73,0.00,,,0.00,WUHU216DAVISVP2,2013-11-27 01:36:00,
2013-11-26 17:38:00,50.2,42.0,30.09,South,170,0.0,0.0,73,0.00,,,0.00,WUHU216DAVISVP2,2013-11-27 01:38:00,
2013-11-26 17:40:00,50.3,42.1,30.09,SSW,207,0.0,0.0,73,0.00,,,0.00,WUHU216DAVISVP2,2013-11-27 01:40:00,
2013-11-26 17:41:00,50.3,42.1,30.09,SSW,211,0.0,0.0,73,0.00,,,0.00,WUHU216DAVISVP2,2013-11-27 01:41:00,
2013-11-26 17:42:00,50.3,42.1,30.09,SSW,211,0.0,0.0,73,0.00,,,0.00,WUHU216DAVISVP2,2013-11-27 01:42:00,
2013-11-26 17:43:00,50.3,42.1,30.09,SW,225,0.0,1.0,73,0.00,,,0.00,WUHU216DAVISVP2,2013-11-27 01:43:00,
2013-11-26 17:45:00,50.3,42.1,30.09,South,185,0.0,1.0,73,0.00,,,0.00,WUHU216DAVISVP2,2013-11-27 01:45:00,
2013-11-26 17:46:00,50.3,42.4,30.09,South,185,0.0,1.0,74,0.00,,,0.00,WUHU216DAVISVP2,2013-11-27 01:46:00,
2013-11-26 17:47:00,50.3,42.3,30.09,South,189,0.0,1.0,74,0.00,,,0.00,WUHU216DAVISVP2,2013-11-27 01:47:00,
2013-11-26 17:48:00,50.2,42.0,30.09,SE,143,0.0,1.0,73,0.00,,,0.00,WUHU216DAVISVP2,2013-11-27 01:48:00,
2013-11-26 17:50:00,50.2,42.0,30.09,South,169,0.0,1.0,73,0.00,,,0.00,WUHU216DAVISVP2,2013-11-27 01:50:00,
2013-11-26 17:51:00,50.2,42.0,30.09,South,169,0.0,1.0,73,0.00,,,0.00,WUHU216DAVISVP2,2013-11-27 01:51:00,
2013-11-26 17:52:00,50.2,42.3,30.09,South,169,0.0,1.0,74,0.00,,,0.00,WUHU216DAVISVP2,2013-11-27 01:52:00,
2013-11-26 17:53:00,50.2,42.3,30.09,South,169,0.0,1.0,74,0.00,,,0.00,WUHU216DAVISVP2,2013-11-27 01:53:00,
2013-11-26 17:56:00,50.1,42.2,30.08,SE,145,0.0,1.0,74,0.00,,,0.00,WUHU216DAVISVP2,2013-11-27 01:56:00,
2013-11-26 17:57:00,50.1,42.2,30.08,SE,141,0.0,1.0,74,0.00,,,0.00,WUHU216DAVISVP2,2013-11-27 01:57:00,
2013-11-26 17:58:00,50.1,42.2,30.08,SE,141,0.0,1.0,74,0.00,,,0.00,WUHU216DAVISVP2,2013-11-27 01:58:00,
2013-11-26 18:01:00,50.0,42.0,30.08,SE,141,0.0,1.0,74,0.00,,,0.00,WUHU216DAVISVP2,2013-11-27 02:01:00,
2013-11-26 18:02:00,50.0,42.0,30.08,SE,141,0.0,1.0,74,0.00,,,0.00,WUHU216DAVISVP2,2013-11-27 02:02:00,
2013-11-26 18:04:00,50.0,42.5,30.08,SE,146,0.0,1.0,75,0.00,,,0.00,WUHU216DAVISVP2,2013-11-27 02:04:00,
2013-11-26 18:06:00,50.0,42.5,30.08,SE,146,0.0,1.0,75,0.00,,,0.00,WUHU216DAVISVP2,2013-11-27 02:06:00,
2013-11-26 18:07:00,50.0,42.5,30.08,South,191,0.0,1.0,75,0.00,,,0.00,WUHU216DAVISVP2,2013-11-27 02:07:00,
2013-11-26 18:10:00,49.9,42.4,30.09,SE,124,0.0,1.0,75,0.00,,,0.00,WUHU216DAVISVP2,2013-11-27 02:10:00,
2013-11-26 18:11:00,49.8,42.3,30.08,SSE,153,0.0,1.0,75,0.00,,,0.00,WUHU216DAVISVP2,2013-11-27 02:11:00,
2013-11-26 18:12:00,49.8,42.3,30.08,SSE,153,0.0,1.0,75,0.00,,,0.00,WUHU216DAVISVP2,2013-11-27 02:12:00,
2013-11-26 18:13:00,49.8,42.3,30.09,SSE,153,0.0,1.0,75,0.00,,,0.00,WUHU216DAVISVP2,2013-11-27 02:13:00,
2013-11-26 18:15:00,49.7,42.5,30.08,SSE,153,0.0,1.0,76,0.00,,,0.00,WUHU216DAVISVP2,2013-11-27 02:15:00,
2013-11-26 18:17:00,49.7,42.5,30.08,SSE,154,0.0,1.0,76,0.00,,,0.00,WUHU216DAVISVP2,2013-11-27 02:17:00,
2013-11-26 18:18:00,49.7,42.5,30.08,SSE,153,0.0,1.0,76,0.00,,,0.00,WUHU216DAVISVP2,2013-11-27 02:18:00,
2013-11-26 18:19:00,49.6,42.3,30.08,SSE,153,0.0,1.0,76,0.00,,,0.00,WUHU216DAVISVP2,2013-11-27 02:19:00,
2013-11-26 18:21:00,49.5,42.3,30.08,SSE,153,0.0,1.0,76,0.00,,,0.00,WUHU216DAVISVP2,2013-11-27 02:21:00,
2013-11-26 18:22:00,49.5,42.3,30.08,SSE,153,0.0,1.0,76,0.00,,,0.00,WUHU216DAVISVP2,2013-11-27 02:22:00,
2013-11-26 18:23:00,49.4,42.2,30.08,SSE,153,0.0,1.0,76,0.00,,,0.00,WUHU216DAVISVP2,2013-11-27 02:23:00,
2013-11-26 18:25:00,49.4,42.5,30.08,SSE,153,0.0,0.0,77,0.00,,,0.00,WUHU216DAVISVP2,2013-11-27 02:25:00,
2013-11-26 18:27:00,49.3,42.5,30.08,SSE,153,0.0,0.0,77,0.00,,,0.00,WUHU216DAVISVP2,2013-11-27 02:27:00,
2013-11-26 18:28:00,49.3,42.5,30.08,SSE,153,0.0,0.0,77,0.00,,,0.00,WUHU216DAVISVP2,2013-11-27 02:28:00,
2013-11-26 18:30:00,49.2,42.4,30.08,SSE,153,0.0,0.0,77,0.00,,,0.00,WUHU216DAVISVP2,2013-11-27 02:30:00,
2013-11-26 18:32:00,49.1,42.3,30.08,SSE,153,0.0,0.0,77,0.00,,,0.00,WUHU216DAVISVP2,2013-11-27 02:32:00,
2013-11-26 18:33:00,49.1,42.3,30.08,SSE,153,0.0,0.0,77,0.00,,,0.00,WUHU216DAVISVP2,2013-11-27 02:33:00,
2013-11-26 18:36:00,48.9,42.3,30.08,SSE,153,0.0,0.0,78,0.00,,,0.00,WUHU216DAVISVP2,2013-11-27 02:36:00,
2013-11-26 18:38:00,48.9,42.3,30.08,SSE,153,0.0,0.0,78,0.00,,,0.00,WUHU216DAVISVP2,2013-11-27 02:38:00,
2013-11-26 18:39:00,48.8,42.3,30.08,SSE,153,0.0,0.0,78,0.00,,,0.00,WUHU216DAVISVP2,2013-11-27 02:39:00,
2013-11-26 18:42:00,48.7,42.2,30.08,SSE,153,0.0,0.0,78,0.00,,,0.00,WUHU216DAVISVP2,2013-11-27 02:42:00,
2013-11-26 18:43:00,48.7,42.2,30.08,SSE,153,0.0,0.0,78,0.00,,,0.00,WUHU216DAVISVP2,2013-11-27 02:43:00,
2013-11-26 18:44:00,48.7,42.2,30.08,SSE,153,0.0,0.0,78,0.00,,,0.00,WUHU216DAVISVP2,2013-11-27 02:44:00,
2013-11-26 18:47:00,48.6,42.4,30.08,SSE,153,0.0,0.0,79,0.00,,,0.00,WUHU216DAVISVP2,2013-11-27 02:47:00,
2013-11-26 18:48:00,48.6,42.1,30.08,SSE,153,0.0,0.0,78,0.00,,,0.00,WUHU216DAVISVP2,2013-11-27 02:48:00,
2013-11-26 18:49:00,48.6,42.1,30.08,SSE,153,0.0,0.0,78,0.00,,,0.00,WUHU216DAVISVP2,2013-11-27 02:49:00,
2013-11-26 18:52:00,48.5,42.0,30.08,SSE,152,0.0,0.0,78,0.00,,,0.00,WUHU216DAVISVP2,2013-11-27 02:52:00,
2013-11-26 18:53:00,48.5,42.0,30.08,SSW,196,0.0,0.0,78,0.00,,,0.00,WUHU216DAVISVP2,2013-11-27 02:53:00,
2013-11-26 18:54:00,48.5,42.0,30.08,SSE,165,0.0,0.0,78,0.00,,,0.00,WUHU216DAVISVP2,2013-11-27 02:54:00,
2013-11-26 18:57:00,48.5,42.0,30.08,SE,124,0.0,0.0,78,0.00,,,0.00,WUHU216DAVISVP2,2013-11-27 02:57:00,
2013-11-26 18:58:00,48.5,42.0,30.08,SSE,157,0.0,0.0,78,0.00,,,0.00,WUHU216DAVISVP2,2013-11-27 02:58:00,
2013-11-26 18:59:00,48.5,42.0,30.08,SSW,200,0.0,0.0,78,0.00,,,0.00,WUHU216DAVISVP2,2013-11-27 02:59:00,
2013-11-26 19:02:00,48.6,42.0,30.08,SSE,166,0.0,0.0,78,0.00,,,0.00,WUHU216DAVISVP2,2013-11-27 03:02:00,
2013-11-26 19:04:00,48.6,42.0,30.07,ESE,115,0.0,0.0,78,0.00,,,0.00,WUHU216DAVISVP2,2013-11-27 03:04:00,
2013-11-26 19:08:00,48.7,42.2,30.07,ESE,115,0.0,0.0,78,0.00,,,0.00,WUHU216DAVISVP2,2013-11-27 03:08:00,
2013-11-26 19:09:00,48.7,41.9,30.07,ESE,120,0.0,1.0,77,0.00,,,0.00,WUHU216DAVISVP2,2013-11-27 03:09:00,
2013-11-26 19:10:00,48.6,41.8,30.07,ESE,120,0.0,1.0,77,0.00,,,0.00,WUHU216DAVISVP2,2013-11-27 03:10:00,
2013-11-26 19:13:00,48.7,41.9,30.07,SE,146,0.0,1.0,77,0.00,,,0.00,WUHU216DAVISVP2,2013-11-27 03:13:00,
2013-11-26 19:14:00,48.7,41.9,30.07,SSE,150,0.0,1.0,77,0.00,,,0.00,WUHU216DAVISVP2,2013-11-27 03:14:00,
2013-11-26 19:15:00,48.7,41.9,30.07,SE,141,0.0,1.0,77,0.00,,,0.00,WUHU216DAVISVP2,2013-11-27 03:15:00,
2013-11-26 19:16:00,48.8,42.0,30.07,SE,141,0.0,1.0,77,0.00,,,0.00,WUHU216DAVISVP2,2013-11-27 03:16:00,
2013-11-26 19:18:00,48.8,42.0,30.07,East,96,0.0,1.0,77,0.00,,,0.00,WUHU216DAVISVP2,2013-11-27 03:18:00,
2013-11-26 19:19:00,48.8,42.0,30.07,East,96,0.0,1.0,77,0.00,,,0.00,WUHU216DAVISVP2,2013-11-27 03:19:00,
2013-11-26 19:20:00,48.8,42.0,30.07,East,96,0.0,1.0,77,0.00,,,0.00,WUHU216DAVISVP2,2013-11-27 03:20:00,
2013-11-26 19:21:00,48.8,42.0,30.07,East,96,0.0,1.0,77,0.00,,,0.00,WUHU216DAVISVP2,2013-11-27 03:21:00,
2013-11-26 19:23:00,48.8,41.6,30.07,SSE,156,0.0,1.0,76,0.00,,,0.00,WUHU216DAVISVP2,2013-11-27 03:23:00,
2013-11-26 19:24:00,48.8,41.6,30.07,SE,134,0.0,1.0,76,0.00,,,0.00,WUHU216DAVISVP2,2013-11-27 03:24:00,
2013-11-26 19:25:00,48.9,41.7,30.07,SE,134,0.0,1.0,76,0.00,,,0.00,WUHU216DAVISVP2,2013-11-27 03:25:00,
2013-11-26 19:26:00,48.9,41.7,30.07,ESE,105,0.0,1.0,76,0.00,,,0.00,WUHU216DAVISVP2,2013-11-27 03:26:00,
2013-11-26 19:28:00,49.0,41.8,30.07,ESE,105,0.0,1.0,76,0.00,,,0.00,WUHU216DAVISVP2,2013-11-27 03:28:00,
2013-11-26 19:30:00,49.0,41.8,30.07,ESE,105,0.0,1.0,76,0.00,,,0.00,WUHU216DAVISVP2,2013-11-27 03:30:00,
2013-11-26 19:31:00,49.0,41.5,30.08,ESE,121,0.0,1.0,75,0.00,,,0.00,WUHU216DAVISVP2,2013-11-27 03:31:00,
2013-11-26 19:34:00,49.2,41.7,30.08,SE,136,0.0,1.0,75,0.00,,,0.00,WUHU216DAVISVP2,2013-11-27 03:34:00,
2013-11-26 19:35:00,49.2,41.7,30.08,SE,130,0.0,1.0,75,0.00,,,0.00,WUHU216DAVISVP2,2013-11-27 03:35:00,
2013-11-26 19:36:00,49.2,41.6,30.07,SE,126,0.0,1.0,75,0.00,,,0.00,WUHU216DAVISVP2,2013-11-27 03:36:00,
2013-11-26 19:39:00,49.3,41.8,30.07,East,98,0.0,1.0,75,0.00,,,0.00,WUHU216DAVISVP2,2013-11-27 03:39:00,
2013-11-26 19:40:00,49.3,41.4,30.07,ENE,64,0.0,1.0,74,0.00,,,0.00,WUHU216DAVISVP2,2013-11-27 03:40:00,
2013-11-26 19:41:00,49.3,41.8,30.07,SE,125,0.0,1.0,75,0.00,,,0.00,WUHU216DAVISVP2,2013-11-27 03:41:00,
2013-11-26 19:42:00,49.3,41.4,30.07,SE,125,0.0,1.0,74,0.00,,,0.00,WUHU216DAVISVP2,2013-11-27 03:42:00,
2013-11-26 19:44:00,49.3,41.4,30.07,SE,125,0.0,1.0,74,0.00,,,0.00,WUHU216DAVISVP2,2013-11-27 03:44:00,
2013-11-26 19:45:00,49.3,41.4,30.07,SE,125,0.0,1.0,74,0.00,,,0.00,WUHU216DAVISVP2,2013-11-27 03:45:00,
2013-11-26 19:46:00,49.3,41.4,30.07,SE,125,0.0,1.0,74,0.00,,,0.00,WUHU216DAVISVP2,2013-11-27 03:46:00,
2013-11-26 19:47:00,49.3,41.4,30.07,SE,125,1.0,1.0,74,0.00,,,0.00,WUHU216DAVISVP2,2013-11-27 03:47:00,
2013-11-26 19:48:00,49.3,41.4,30.07,NNW,328,0.0,1.0,74,0.00,,,0.00,WUHU216DAVISVP2,2013-11-27 03:48:00,
2013-11-26 19:49:00,49.3,41.1,30.07,SE,131,0.0,1.0,73,0.00,,,0.00,WUHU216DAVISVP2,2013-11-27 03:49:00,
2013-11-26 19:50:00,49.3,41.1,30.07,ESE,111,0.0,1.0,73,0.00,,,0.00,WUHU216DAVISVP2,2013-11-27 03:50:00,
2013-11-26 19:52:00,49.3,41.1,30.07,ESE,111,0.0,1.0,73,0.00,,,0.00,WUHU216DAVISVP2,2013-11-27 03:52:00,
2013-11-26 19:54:00,49.4,40.8,30.07,SE,124,0.0,1.0,72,0.00,,,0.00,WUHU216DAVISVP2,2013-11-27 03:54:00,
2013-11-26 19:55:00,49.5,40.9,30.07,ENE,72,0.0,2.0,72,0.00,,,0.00,WUHU216DAVISVP2,2013-11-27 03:55:00,
2013-11-26 19:57:00,49.5,40.9,30.07,ENE,76,0.0,2.0,72,0.00,,,0.00,WUHU216DAVISVP2,2013-11-27 03:57:00,
2013-11-26 19:58:00,49.6,41.0,30.07,ESE,104,0.0,2.0,72,0.00,,,0.00,WUHU216DAVISVP2,2013-11-27 03:58:00,
2013-11-26 19:59:00,49.6,41.0,30.07,SE,130,0.0,2.0,72,0.00,,,0.00,WUHU216DAVISVP2,2013-11-27 03:59:00,
2013-11-26 20:00:00,49.6,41.0,30.07,East,86,0.0,2.0,72,0.00,,,0.00,WUHU216DAVISVP2,2013-11-27 04:00:00,
2013-11-26 20:02:00,49.6,41.0,30.07,NNE,27,0.0,2.0,72,0.00,,,0.00,WUHU216DAVISVP2,2013-11-27 04:02:00,
2013-11-26 20:03:00,49.6,40.7,30.07,SE,145,0.0,2.0,71,0.00,,,0.00,WUHU216DAVISVP2,2013-11-27 04:03:00,
2013-11-26 20:04:00,49.7,40.8,30.07,ENE,72,0.0,3.0,71,0.00,,,0.00,WUHU216DAVISVP2,2013-11-27 04:04:00,
2013-11-26 20:05:00,49.7,40.8,30.07,ESE,102,0.0,3.0,71,0.00,,,0.00,WUHU216DAVISVP2,2013-11-27 04:05:00,
2013-11-26 20:06:00,49.7,40.8,30.07,SE,127,0.0,3.0,71,0.00,,,0.00,WUHU216DAVISVP2,2013-11-27 04:06:00,
2013-11-26 20:07:00,49.8,40.9,30.07,East,96,1.0,3.0,71,0.00,,,0.00,WUHU216DAVISVP2,2013-11-27 04:07:00,
2013-11-26 20:08:00,49.8,40.9,30.07,ESE,104,0.0,3.0,71,0.00,,,0.00,WUHU216DAVISVP2,2013-11-27 04:08:00,
2013-11-26 20:10:00,49.8,40.5,30.07,SE,139,1.0,3.0,70,0.00,,,0.00,WUHU216DAVISVP2,2013-11-27 04:10:00,
2013-11-26 20:11:00,49.8,40.5,30.07,ENE,69,0.0,3.0,70,0.00,,,0.00,WUHU216DAVISVP2,2013-11-27 04:11:00,
2013-11-26 20:13:00,49.8,40.5,30.07,SE,127,0.0,3.0,70,0.00,,,0.00,WUHU216DAVISVP2,2013-11-27 04:13:00,
2013-11-26 20:15:00,49.8,40.4,30.07,East,96,0.0,3.0,70,0.00,,,0.00,WUHU216DAVISVP2,2013-11-27 04:15:00,
2013-11-26 20:16:00,49.8,40.4,30.07,ESE,105,0.0,3.0,70,0.00,,,0.00,WUHU216DAVISVP2,2013-11-27 04:16:00,
2013-11-26 20:19:00,49.8,40.4,30.06,SE,134,0.0,3.0,70,0.00,,,0.00,WUHU216DAVISVP2,2013-11-27 04:19:00,
2013-11-26 20:21:00,49.7,40.3,30.07,SSE,155,0.0,3.0,70,0.00,,,0.00,WUHU216DAVISVP2,2013-11-27 04:21:00,
2013-11-26 20:24:00,49.7,39.9,30.06,NNW,344,0.0,2.0,69,0.00,,,0.00,WUHU216DAVISVP2,2013-11-27 04:24:00,
2013-11-26 20:26:00,49.7,39.9,30.06,North,7,1.0,2.0,69,0.00,,,0.00,WUHU216DAVISVP2,2013-11-27 04:26:00,
2013-11-26 20:27:00,49.7,39.9,30.06,NE,41,1.0,2.0,69,0.00,,,0.00,WUHU216DAVISVP2,2013-11-27 04:27:00,
2013-11-26 20:28:00,49.8,40.0,30.06,East,101,0.0,2.0,69,0.00,,,0.00,WUHU216DAVISVP2,2013-11-27 04:28:00,
2013-11-26 20:29:00,49.8,40.0,30.06,SE,126,0.0,2.0,69,0.00,,,0.00,WUHU216DAVISVP2,2013-11-27 04:29:00,
2013-11-26 20:31:00,49.8,40.0,30.06,SE,124,0.0,2.0,69,0.00,,,0.00,WUHU216DAVISVP2,2013-11-27 04:31:00,
2013-11-26 20:32:00,49.8,40.0,30.06,South,184,0.0,2.0,69,0.00,,,0.00,WUHU216DAVISVP2,2013-11-27 04:32:00,
2013-11-26 20:33:00,49.9,40.1,30.06,NNE,32,0.0,2.0,69,0.00,,,0.00,WUHU216DAVISVP2,2013-11-27 04:33:00,
2013-11-26 20:34:00,49.8,39.7,30.06,NW,317,0.0,2.0,68,0.00,,,0.00,WUHU216DAVISVP2,2013-11-27 04:34:00,
2013-11-26 20:36:00,49.8,39.7,30.06,NW,306,0.0,2.0,68,0.00,,,0.00,WUHU216DAVISVP2,2013-11-27 04:36:00,
2013-11-26 20:37:00,49.8,39.7,30.06,ESE,116,0.0,2.0,68,0.00,,,0.00,WUHU216DAVISVP2,2013-11-27 04:37:00,
2013-11-26 20:38:00,49.8,39.7,30.06,South,191,0.0,2.0,68,0.00,,,0.00,WUHU216DAVISVP2,2013-11-27 04:38:00,
2013-11-26 20:39:00,49.9,39.8,30.06,East,85,2.0,2.0,68,0.00,,,0.00,WUHU216DAVISVP2,2013-11-27 04:39:00,
2013-11-26 20:40:00,49.9,39.8,30.06,NNW,340,0.0,2.0,68,0.00,,,0.00,WUHU216DAVISVP2,2013-11-27 04:40:00,
2013-11-26 20:41:00,49.9,39.8,30.06,ESE,113,0.0,2.0,68,0.00,,,0.00,WUHU216DAVISVP2,2013-11-27 04:41:00,
2013-11-26 20:42:00,49.8,39.7,30.06,NNW,339,0.0,2.0,68,0.00,,,0.00,WUHU216DAVISVP2,2013-11-27 04:42:00,
2013-11-26 20:43:00,49.8,39.7,30.06,SSE,165,0.0,2.0,68,0.00,,,0.00,WUHU216DAVISVP2,2013-11-27 04:43:00,
2013-11-26 20:45:00,49.8,39.7,30.06,SW,225,0.0,2.0,68,0.00,,,0.00,WUHU216DAVISVP2,2013-11-27 04:45:00,
2013-11-26 20:46:00,49.8,39.7,30.06,SSE,159,0.0,2.0,68,0.00,,,0.00,WUHU216DAVISVP2,2013-11-27 04:46:00,
2013-11-26 20:47:00,49.7,39.6,30.06,SSE,159,0.0,2.0,68,0.00,,,0.00,WUHU216DAVISVP2,2013-11-27 04:47:00,
2013-11-26 20:48:00,49.7,39.6,30.06,SSE,159,0.0,2.0,68,0.00,,,0.00,WUHU216DAVISVP2,2013-11-27 04:48:00,
2013-11-26 20:49:00,49.7,39.6,30.06,East,79,0.0,2.0,68,0.00,,,0.00,WUHU216DAVISVP2,2013-11-27 04:49:00,
2013-11-26 20:50:00,49.6,39.5,30.06,ESE,122,0.0,2.0,68,0.00,,,0.00,WUHU216DAVISVP2,2013-11-27 04:50:00,
2013-11-26 20:51:00,49.6,39.6,30.06,South,172,0.0,2.0,68,0.00,,,0.00,WUHU216DAVISVP2,2013-11-27 04:51:00,
2013-11-26 20:52:00,49.6,39.6,30.06,SW,228,0.0,2.0,68,0.00,,,0.00,WUHU216DAVISVP2,2013-11-27 04:52:00,
2013-11-26 20:53:00,49.5,39.9,30.06,NE,41,1.0,2.0,69,0.00,,,0.00,WUHU216DAVISVP2,2013-11-27 04:53:00,
2013-11-26 20:54:00,49.4,39.8,30.06,NNE,13,1.0,2.0,69,0.00,,,0.00,WUHU216DAVISVP2,2013-11-27 04:54:00,
2013-11-26 20:55:00,49.4,39.8,30.06,West,269,0.0,2.0,69,0.00,,,0.00,WUHU216DAVISVP2,2013-11-27 04:55:00,
2013-11-26 20:56:00,49.3,39.7,30.06,ESE,104,0.0,2.0,69,0.00,,,0.00,WUHU216DAVISVP2,2013-11-27 04:56:00,
2013-11-26 20:57:00,49.3,39.7,30.06,ESE,107,0.0,2.0,69,0.00,,,0.00,WUHU216DAVISVP2,2013-11-27 04:57:00,
2013-11-26 20:59:00,49.2,39.6,30.06,SE,141,1.0,2.0,69,0.00,,,0.00,WUHU216DAVISVP2,2013-11-27 04:59:00,
2013-11-26 21:00:00,49.1,39.5,30.06,SE,141,0.0,2.0,69,0.00,,,0.00,WUHU216DAVISVP2,2013-11-27 05:00:00,
2013-11-26 21:01:00,49.1,39.5,30.06,ESE,113,0.0,2.0,69,0.00,,,0.00,WUHU216DAVISVP2,2013-11-27 05:01:00,
2013-11-26 21:06:00,48.9,39.3,30.06,ENE,69,0.0,2.0,69,0.00,,,0.00,WUHU216DAVISVP2,2013-11-27 05:06:00,
2013-11-26 21:11:00,48.7,39.1,30.06,ESE,120,0.0,1.0,69,0.00,,,0.00,WUHU216DAVISVP2,2013-11-27 05:11:00,
2013-11-26 21:16:00,48.5,39.3,30.06,SSE,159,0.0,1.0,70,0.00,,,0.00,WUHU216DAVISVP2,2013-11-27 05:16:00,
2013-11-26 21:17:00,48.4,38.8,30.05,SE,129,0.0,1.0,69,0.00,,,0.00,WUHU216DAVISVP2,2013-11-27 05:17:00,
2013-11-26 21:21:00,48.3,39.1,30.05,WSW,242,0.0,2.0,70,0.00,,,0.00,WUHU216DAVISVP2,2013-11-27 05:21:00,
2013-11-26 21:22:00,48.2,39.0,30.06,NE,44,0.0,2.0,70,0.00,,,0.00,WUHU216DAVISVP2,2013-11-27 05:22:00,
2013-11-26 21:26:00,48.1,38.9,30.05,NNE,32,0.0,3.0,70,0.00,,,0.00,WUHU216DAVISVP2,2013-11-27 05:26:00,
2013-11-26 21:27:00,48.1,38.5,30.05,SE,129,0.0,3.0,69,0.00,,,0.00,WUHU216DAVISVP2,2013-11-27 05:27:00,
2013-11-26 21:28:00,48.1,38.5,30.05,East,95,0.0,3.0,69,0.00,,,0.00,WUHU216DAVISVP2,2013-11-27 05:28:00,
2013-11-26 21:31:00,48.0,38.4,30.05,SSE,166,0.0,3.0,69,0.00,,,0.00,WUHU216DAVISVP2,2013-11-27 05:31:00,
2013-11-26 21:32:00,48.0,38.4,30.05,NE,51,0.0,3.0,69,0.00,,,0.00,WUHU216DAVISVP2,2013-11-27 05:32:00,
2013-11-26 21:33:00,48.0,38.4,30.05,SE,134,0.0,3.0,69,0.00,,,0.00,WUHU216DAVISVP2,2013-11-27 05:33:00,
2013-11-26 21:34:00,48.0,38.4,30.05,WNW,284,1.0,3.0,69,0.00,,,0.00,WUHU216DAVISVP2,2013-11-27 05:34:00,
2013-11-26 21:36:00,47.9,38.3,30.05,North,352,1.0,3.0,69,0.00,,,0.00,WUHU216DAVISVP2,2013-11-27 05:36:00,
2013-11-26 21:37:00,47.9,38.3,30.05,ESE,108,0.0,3.0,69,0.00,,,0.00,WUHU216DAVISVP2,2013-11-27 05:37:00,
2013-11-26 21:38:00,48.0,38.4,30.05,SE,136,0.0,3.0,69,0.00,,,0.00,WUHU216DAVISVP2,2013-11-27 05:38:00,
2013-11-26 21:40:00,48.0,38.4,30.05,North,4,0.0,3.0,69,0.00,,,0.00,WUHU216DAVISVP2,2013-11-27 05:40:00,
2013-11-26 21:41:00,48.0,38.4,30.05,ESE,113,0.0,3.0,69,0.00,,,0.00,WUHU216DAVISVP2,2013-11-27 05:41:00,
2013-11-26 21:42:00,48.0,38.4,30.05,ESE,113,0.0,3.0,69,0.00,,,0.00,WUHU216DAVISVP2,2013-11-27 05:42:00,
2013-11-26 21:44:00,48.0,38.4,30.05,ESE,115,0.0,3.0,69,0.00,,,0.00,WUHU216DAVISVP2,2013-11-27 05:44:00,
2013-11-26 21:45:00,48.0,38.4,30.05,ESE,119,0.0,2.0,69,0.00,,,0.00,WUHU216DAVISVP2,2013-11-27 05:45:00,
2013-11-26 21:47:00,47.9,38.2,30.05,SE,129,0.0,2.0,69,0.00,,,0.00,WUHU216DAVISVP2,2013-11-27 05:47:00,
2013-11-26 21:50:00,47.7,38.0,30.05,ENE,70,0.0,2.0,69,0.00,,,0.00,WUHU216DAVISVP2,2013-11-27 05:50:00,
2013-11-26 21:51:00,47.8,38.1,30.05,ESE,117,0.0,2.0,69,0.00,,,0.00,WUHU216DAVISVP2,2013-11-27 05:51:00,
2013-11-26 21:52:00,47.8,38.1,30.05,ESE,107,0.0,2.0,69,0.00,,,0.00,WUHU216DAVISVP2,2013-11-27 05:52:00,
2013-11-26 21:53:00,47.8,38.2,30.05,East,83,0.0,2.0,69,0.00,,,0.00,WUHU216DAVISVP2,2013-11-27 05:53:00,
2013-11-26 21:56:00,47.7,38.0,30.05,South,188,0.0,2.0,69,0.00,,,0.00,WUHU216DAVISVP2,2013-11-27 05:56:00,
2013-11-26 21:57:00,47.7,38.0,30.05,South,188,0.0,2.0,69,0.00,,,0.00,WUHU216DAVISVP2,2013-11-27 05:57:00,
2013-11-26 21:58:00,47.6,38.0,30.05,East,95,0.0,2.0,69,0.00,,,0.00,WUHU216DAVISVP2,2013-11-27 05:58:00,
2013-11-26 22:01:00,47.6,38.0,30.05,ENE,67,0.0,3.0,69,0.00,,,0.00,WUHU216DAVISVP2,2013-11-27 06:01:00,
2013-11-26 22:02:00,47.6,38.0,30.05,NNW,333,0.0,3.0,69,0.00,,,0.00,WUHU216DAVISVP2,2013-11-27 06:02:00,
2013-11-26 22:03:00,47.6,38.0,30.05,East,94,0.0,3.0,69,0.00,,,0.00,WUHU216DAVISVP2,2013-11-27 06:03:00,
2013-11-26 22:07:00,47.6,38.0,30.05,West,275,1.0,3.0,69,0.00,,,0.00,WUHU216DAVISVP2,2013-11-27 06:07:00,
2013-11-26 22:08:00,47.6,37.9,30.05,ENE,74,0.0,3.0,69,0.00,,,0.00,WUHU216DAVISVP2,2013-11-27 06:08:00,
2013-11-26 22:12:00,47.6,38.0,30.05,SE,125,0.0,3.0,69,0.00,,,0.00,WUHU216DAVISVP2,2013-11-27 06:12:00,
2013-11-26 22:13:00,47.6,38.0,30.05,East,101,0.0,3.0,69,0.00,,,0.00,WUHU216DAVISVP2,2013-11-27 06:13:00,
2013-11-26 22:14:00,47.6,38.0,30.05,NE,44,0.0,3.0,69,0.00,,,0.00,WUHU216DAVISVP2,2013-11-27 06:14:00,
2013-11-26 22:17:00,47.5,37.9,30.05,ENE,68,0.0,3.0,69,0.00,,,0.00,WUHU216DAVISVP2,2013-11-27 06:17:00,
2013-11-26 22:18:00,47.5,37.9,30.05,East,93,0.0,3.0,69,0.00,,,0.00,WUHU216DAVISVP2,2013-11-27 06:18:00,
2013-11-26 22:19:00,47.5,37.9,30.05,SE,130,0.0,3.0,69,0.00,,,0.00,WUHU216DAVISVP2,2013-11-27 06:19:00,
2013-11-26 22:22:00,47.4,37.7,30.05,South,179,0.0,3.0,69,0.00,,,0.00,WUHU216DAVISVP2,2013-11-27 06:22:00,
2013-11-26 22:23:00,47.4,37.7,30.05,South,174,0.0,3.0,69,0.00,,,0.00,WUHU216DAVISVP2,2013-11-27 06:23:00,
2013-11-26 22:24:00,47.4,38.2,30.05,ENE,74,0.0,3.0,70,0.00,,,0.00,WUHU216DAVISVP2,2013-11-27 06:24:00,
2013-11-26 22:28:00,47.4,38.2,30.05,ESE,115,1.0,3.0,70,0.00,,,0.00,WUHU216DAVISVP2,2013-11-27 06:28:00,
2013-11-26 22:29:00,47.3,38.1,30.05,ESE,110,1.0,2.0,70,0.00,,,0.00,WUHU216DAVISVP2,2013-11-27 06:29:00,
2013-11-26 22:30:00,47.3,38.1,30.05,NE,39,0.0,2.0,70,0.00,,,0.00,WUHU216DAVISVP2,2013-11-27 06:30:00,
2013-11-26 22:33:00,47.3,38.1,30.05,SE,142,0.0,3.0,70,0.00,,,0.00,WUHU216DAVISVP2,2013-11-27 06:33:00,
2013-11-26 22:34:00,47.2,38.0,30.05,ENE,75,0.0,3.0,70,0.00,,,0.00,WUHU216DAVISVP2,2013-11-27 06:34:00,
2013-11-26 22:35:00,47.2,38.0,30.04,WSW,237,0.0,3.0,70,0.00,,,0.00,WUHU216DAVISVP2,2013-11-27 06:35:00,
2013-11-26 22:38:00,47.2,38.0,30.04,NE,48,0.0,3.0,70,0.00,,,0.00,WUHU216DAVISVP2,2013-11-27 06:38:00,
2013-11-26 22:39:00,47.2,38.0,30.04,WSW,238,0.0,3.0,70,0.00,,,0.00,WUHU216DAVISVP2,2013-11-27 06:39:00,
2013-11-26 22:41:00,47.1,38.2,30.04,SE,128,0.0,3.0,71,0.00,,,0.00,WUHU216DAVISVP2,2013-11-27 06:41:00,
2013-11-26 22:43:00,47.1,38.2,30.04,ENE,77,1.0,3.0,71,0.00,,,0.00,WUHU216DAVISVP2,2013-11-27 06:43:00,
2013-11-26 22:44:00,47.1,38.2,30.04,ENE,76,0.0,3.0,71,0.00,,,0.00,WUHU216DAVISVP2,2013-11-27 06:44:00,
2013-11-26 22:45:00,47.0,38.2,30.04,ENE,70,0.0,3.0,71,0.00,,,0.00,WUHU216DAVISVP2,2013-11-27 06:45:00,
2013-11-26 22:46:00,47.0,38.2,30.04,ENE,72,0.0,3.0,71,0.00,,,0.00,WUHU216DAVISVP2,2013-11-27 06:46:00,
2013-11-26 22:48:00,46.9,38.1,30.04,ESE,122,0.0,3.0,71,0.00,,,0.00,WUHU216DAVISVP2,2013-11-27 06:48:00,
2013-11-26 22:49:00,46.9,38.1,30.04,SE,139,1.0,3.0,71,0.00,,,0.00,WUHU216DAVISVP2,2013-11-27 06:49:00,
2013-11-26 22:50:00,46.9,38.1,30.04,SE,134,0.0,3.0,71,0.00,,,0.00,WUHU216DAVISVP2,2013-11-27 06:50:00,
2013-11-26 22:51:00,46.8,38.0,30.04,SE,130,0.0,3.0,71,0.00,,,0.00,WUHU216DAVISVP2,2013-11-27 06:51:00,
2013-11-26 22:53:00,46.8,38.0,30.04,ESE,108,0.0,2.0,71,0.00,,,0.00,WUHU216DAVISVP2,2013-11-27 06:53:00,
2013-11-26 22:54:00,46.8,38.0,30.04,ESE,119,0.0,2.0,71,0.00,,,0.00,WUHU216DAVISVP2,2013-11-27 06:54:00,
2013-11-26 22:55:00,46.8,38.0,30.04,SE,127,0.0,2.0,71,0.00,,,0.00,WUHU216DAVISVP2,2013-11-27 06:55:00,
2013-11-26 22:56:00,46.8,38.0,30.03,ESE,122,0.0,2.0,71,0.00,,,0.00,WUHU216DAVISVP2,2013-11-27 06:56:00,
2013-11-26 22:58:00,46.8,38.0,30.04,East,87,0.0,3.0,71,0.00,,,0.00,WUHU216DAVISVP2,2013-11-27 06:58:00,
2013-11-26 22:59:00,46.8,38.0,30.04,NW,324,0.0,3.0,71,0.00,,,0.00,WUHU216DAVISVP2,2013-11-27 06:59:00,
2013-11-26 23:00:00,46.8,38.3,30.04,SSW,206,0.0,3.0,72,0.00,,,0.00,WUHU216DAVISVP2,2013-11-27 07:00:00,
2013-11-26 23:01:00,46.8,38.0,30.03,ESE,122,0.0,3.0,71,0.00,,,0.00,WUHU216DAVISVP2,2013-11-27 07:01:00,
2013-11-26 23:02:00,46.7,38.2,30.03,ESE,104,0.0,3.0,72,0.00,,,0.00,WUHU216DAVISVP2,2013-11-27 07:02:00,
2013-11-26 23:04:00,46.7,38.1,30.03,ENE,78,0.0,3.0,72,0.00,,,0.00,WUHU216DAVISVP2,2013-11-27 07:04:00,
2013-11-26 23:05:00,46.7,38.1,30.03,East,91,0.0,3.0,72,0.00,,,0.00,WUHU216DAVISVP2,2013-11-27 07:05:00,
2013-11-26 23:07:00,46.6,38.1,30.03,NNE,32,0.0,3.0,72,0.00,,,0.00,WUHU216DAVISVP2,2013-11-27 07:07:00,
2013-11-26 23:09:00,46.5,38.0,30.03,ESE,116,0.0,3.0,72,0.00,,,0.00,WUHU216DAVISVP2,2013-11-27 07:09:00,
2013-11-26 23:10:00,46.5,38.0,30.03,East,98,0.0,3.0,72,0.00,,,0.00,WUHU216DAVISVP2,2013-11-27 07:10:00,
2013-11-26 23:11:00,46.5,38.0,30.03,SE,140,0.0,3.0,72,0.00,,,0.00,WUHU216DAVISVP2,2013-11-27 07:11:00,
2013-11-26 23:12:00,46.4,37.9,30.03,SE,146,0.0,3.0,72,0.00,,,0.00,WUHU216DAVISVP2,2013-11-27 07:12:00,
2013-11-26 23:13:00,46.4,37.9,30.03,SE,127,0.0,3.0,72,0.00,,,0.00,WUHU216DAVISVP2,2013-11-27 07:13:00,
2013-11-26 23:14:00,46.4,37.9,30.03,NW,309,0.0,3.0,72,0.00,,,0.00,WUHU216DAVISVP2,2013-11-27 07:14:00,
2013-11-26 23:15:00,46.4,37.9,30.03,SE,131,0.0,3.0,72,0.00,,,0.00,WUHU216DAVISVP2,2013-11-27 07:15:00,
2013-11-26 23:16:00,46.3,37.9,30.03,East,101,0.0,3.0,72,0.00,,,0.00,WUHU216DAVISVP2,2013-11-27 07:16:00,
2013-11-26 23:17:00,46.3,37.9,30.03,West,273,0.0,2.0,72,0.00,,,0.00,WUHU216DAVISVP2,2013-11-27 07:17:00,
2013-11-26 23:18:00,46.3,37.9,30.03,East,100,0.0,2.0,72,0.00,,,0.00,WUHU216DAVISVP2,2013-11-27 07:18:00,
2013-11-26 23:19:00,46.3,37.9,30.03,East,100,0.0,2.0,72,0.00,,,0.00,WUHU216DAVISVP2,2013-11-27 07:19:00,
2013-11-26 23:20:00,46.3,37.9,30.03,ESE,110,1.0,2.0,72,0.00,,,0.00,WUHU216DAVISVP2,2013-11-27 07:20:00,
2013-11-26 23:21:00,46.3,37.9,30.03,ESE,106,2.0,2.0,72,0.00,,,0.00,WUHU216DAVISVP2,2013-11-27 07:21:00,
2013-11-26 23:23:00,46.3,37.9,30.03,WSW,246,0.0,2.0,72,0.00,,,0.00,WUHU216DAVISVP2,2013-11-27 07:23:00,
2013-11-26 23:24:00,46.3,37.9,30.03,South,176,0.0,2.0,72,0.00,,,0.00,WUHU216DAVISVP2,2013-11-27 07:24:00,
2013-11-26 23:25:00,46.3,37.9,30.03,WNW,284,0.0,2.0,72,0.00,,,0.00,WUHU216DAVISVP2,2013-11-27 07:25:00,
2013-11-26 23:26:00,46.2,37.8,30.03,NE,43,0.0,2.0,72,0.00,,,0.00,WUHU216DAVISVP2,2013-11-27 07:26:00,
2013-11-26 23:28:00,46.2,37.8,30.03,SSE,167,0.0,2.0,72,0.00,,,0.00,WUHU216DAVISVP2,2013-11-27 07:28:00,
2013-11-26 23:29:00,46.2,37.8,30.03,WSW,239,0.0,2.0,72,0.00,,,0.00,WUHU216DAVISVP2,2013-11-27 07:29:00,
2013-11-26 23:30:00,46.2,37.8,30.03,West,263,0.0,2.0,72,0.00,,,0.00,WUHU216DAVISVP2,2013-11-27 07:30:00,
2013-11-26 23:31:00,46.2,37.8,30.03,SE,132,0.0,2.0,72,0.00,,,0.00,WUHU216DAVISVP2,2013-11-27 07:31:00,
2013-11-26 23:32:00,46.2,37.8,30.03,East,96,0.0,2.0,72,0.00,,,0.00,WUHU216DAVISVP2,2013-11-27 07:32:00,
2013-11-26 23:33:00,46.1,37.7,30.03,WSW,237,0.0,2.0,72,0.00,,,0.00,WUHU216DAVISVP2,2013-11-27 07:33:00,
2013-11-26 23:34:00,46.1,37.7,30.03,SW,228,0.0,2.0,72,0.00,,,0.00,WUHU216DAVISVP2,2013-11-27 07:34:00,
2013-11-26 23:35:00,46.1,37.6,30.03,SE,146,0.0,2.0,72,0.00,,,0.00,WUHU216DAVISVP2,2013-11-27 07:35:00,
2013-11-26 23:36:00,46.1,37.6,30.03,ESE,117,0.0,2.0,72,0.00,,,0.00,WUHU216DAVISVP2,2013-11-27 07:36:00,
2013-11-26 23:37:00,46.1,37.6,30.03,SE,129,0.0,2.0,72,0.00,,,0.00,WUHU216DAVISVP2,2013-11-27 07:37:00,
2013-11-26 23:38:00,46.1,37.9,30.02,SW,217,0.0,2.0,73,0.00,,,0.00,WUHU216DAVISVP2,2013-11-27 07:38:00,
2013-11-26 23:39:00,46.1,37.9,30.02,WSW,254,0.0,2.0,73,0.00,,,0.00,WUHU216DAVISVP2,2013-11-27 07:39:00,
2013-11-26 23:40:00,46.1,38.0,30.03,SW,222,0.0,2.0,73,0.00,,,0.00,WUHU216DAVISVP2,2013-11-27 07:40:00,
2013-11-26 23:41:00,46.1,38.0,30.03,SE,132,0.0,2.0,73,0.00,,,0.00,WUHU216DAVISVP2,2013-11-27 07:41:00,
2013-11-26 23:42:00,46.1,38.0,30.02,South,175,0.0,2.0,73,0.00,,,0.00,WUHU216DAVISVP2,2013-11-27 07:42:00,
2013-11-26 23:43:00,46.1,38.0,30.02,NNW,338,0.0,2.0,73,0.00,,,0.00,WUHU216DAVISVP2,2013-11-27 07:43:00,
2013-11-26 23:44:00,46.1,38.0,30.02,NNW,338,0.0,2.0,73,0.00,,,0.00,WUHU216DAVISVP2,2013-11-27 07:44:00,
2013-11-26 23:45:00,46.0,37.9,30.02,NNW,338,0.0,2.0,73,0.00,,,0.00,WUHU216DAVISVP2,2013-11-27 07:45:00,
2013-11-26 23:47:00,45.9,37.8,30.03,NW,316,0.0,2.0,73,0.00,,,0.00,WUHU216DAVISVP2,2013-11-27 07:47:00,
2013-11-26 23:49:00,45.9,37.8,30.02,ESE,108,0.0,1.0,73,0.00,,,0.00,WUHU216DAVISVP2,2013-11-27 07:49:00,
2013-11-26 23:50:00,45.8,37.7,30.02,North,4,0.0,1.0,73,0.00,,,0.00,WUHU216DAVISVP2,2013-11-27 07:50:00,
2013-11-26 23:52:00,45.8,37.7,30.02,SE,133,0.0,1.0,73,0.00,,,0.00,WUHU216DAVISVP2,2013-11-27 07:52:00,
2013-11-26 23:54:00,45.7,37.6,30.02,East,79,1.0,1.0,73,0.00,,,0.00,WUHU216DAVISVP2,2013-11-27 07:54:00,
2013-11-26 23:55:00,45.7,37.6,30.02,SW,234,1.0,1.0,73,0.00,,,0.00,WUHU216DAVISVP2,2013-11-27 07:55:00,
2013-11-26 23:56:00,45.8,37.7,30.02,SW,234,0.0,1.0,73,0.00,,,0.00,WUHU216DAVISVP2,2013-11-27 07:56:00,
2013-11-26 23:57:00,45.7,37.6,30.02,SSW,212,0.0,1.0,73,0.00,,,0.00,WUHU216DAVISVP2,2013-11-27 07:57:00,
2013-11-26 23:59:00,45.7,37.6,30.02,East,92,0.0,1.0,73,0.00,,,0.00,WUHU216DAVISVP2,2013-11-27 07:59:00,